Wetterdaten: Dienstag, 22.11.2016
Datum Zeit Temp. Aussen Temp. o. S. +5cm Feuchte Auss BlattFeu 1 Luftdruck Regen Sonnenschein Regendauer Solar Windben Empfang
22.11.2016 00:00 11,6 C 10,6 C 9,4 C 93 % 0 lf 1001,2 hPa 0,0 l/m 0 min 0 min 5 W/m 16,7 km/h (3 Bft) 95,74 %
22.11.2016 00:02 11,6 C 10,6 C 9,4 C 93 % 0 lf 1001,3 hPa 0,0 l/m 0 min 0 min 5 W/m 25,1 km/h (4 Bft) 95,00 %
22.11.2016 00:06 11,6 C 10,6 C 9,4 C 93 % 0 lf 1001,5 hPa 0,0 l/m 0 min 2 min 5 W/m 25,1 km/h (4 Bft) 98,86 %
22.11.2016 00:08 11,6 C 10,6 C 9,4 C 93 % 0 lf 1001,5 hPa 0,0 l/m 0 min 0 min 5 W/m 29,3 km/h (5 Bft) 97,87 %
22.11.2016 00:10 11,6 C 10,6 C 9,4 C 93 % 0 lf 1001,5 hPa 0,0 l/m 0 min 2 min 5 W/m 29,3 km/h (5 Bft) 95,74 %
22.11.2016 00:12 11,6 C 10,6 C 9,4 C 93 % 0 lf 1001,4 hPa 0,0 l/m 0 min 2 min 5 W/m 25,1 km/h (4 Bft) 93,62 %
22.11.2016 00:14 11,6 C 10,6 C 9,4 C 93 % 0 lf 1001,5 hPa 0,0 l/m 0 min 2 min 5 W/m 25,1 km/h (4 Bft) 97,87 %
22.11.2016 00:16 11,6 C 10,6 C 9,4 C 93 % 0 lf 1001,4 hPa 0,0 l/m 0 min 2 min 5 W/m 20,9 km/h (4 Bft) 97,56 %
22.11.2016 00:18 11,6 C 10,6 C 9,4 C 93 % 0 lf 1001,1 hPa 0,0 l/m 0 min 2 min 5 W/m 25,1 km/h (4 Bft) 95,65 %
22.11.2016 00:20 11,5 C 10,6 C 9,4 C 93 % 0 lf 1000,7 hPa 0,0 l/m 0 min 2 min 5 W/m 33,5 km/h (5 Bft) 95,74 %
22.11.2016 00:22 11,5 C 10,6 C 9,4 C 93 % 0 lf 1000,7 hPa 0,0 l/m 0 min 2 min 5 W/m 23,0 km/h (4 Bft) 93,62 %
22.11.2016 00:24 11,5 C 10,6 C 9,4 C 93 % 0 lf 1000,9 hPa 0,0 l/m 0 min 2 min 5 W/m 25,1 km/h (4 Bft) 95,74 %
22.11.2016 00:26 11,5 C 10,6 C 9,4 C 93 % 0 lf 1001,3 hPa 0,0 l/m 0 min 2 min 5 W/m 25,1 km/h (4 Bft) 95,74 %
22.11.2016 00:28 11,6 C 10,6 C 9,4 C 93 % 0 lf 1001,7 hPa 0,0 l/m 0 min 2 min 5 W/m 25,1 km/h (4 Bft) 93,48 %
22.11.2016 00:30 11,6 C 11,1 C 9,4 C 93 % 0 lf 1001,6 hPa 0,0 l/m 0 min 2 min 5 W/m 29,3 km/h (5 Bft) 95,74 %
22.11.2016 00:32 11,6 C 11,1 C 9,4 C 93 % 0 lf 1001,6 hPa 0,0 l/m 0 min 2 min 5 W/m 31,4 km/h (5 Bft) 93,62 %
22.11.2016 00:34 11,6 C 11,1 C 9,4 C 93 % 0 lf 1001,5 hPa 0,0 l/m 0 min 2 min 5 W/m 27,2 km/h (4 Bft) 91,49 %
22.11.2016 00:36 11,6 C 11,1 C 9,4 C 93 % 0 lf 1000,9 hPa 0,0 l/m 0 min 2 min 5 W/m 27,2 km/h (4 Bft) 95,74 %
22.11.2016 00:38 11,6 C 11,1 C 9,4 C 92 % 0 lf 1000,8 hPa 0,0 l/m 0 min 0 min 5 W/m 20,9 km/h (4 Bft) 91,49 %
22.11.2016 00:40 11,7 C 11,1 C 9,4 C 92 % 0 lf 1001,5 hPa 0,0 l/m 0 min 0 min 5 W/m 27,2 km/h (4 Bft) 95,65 %
22.11.2016 00:42 11,7 C 11,1 C 9,4 C 92 % 0 lf 1001,6 hPa 0,0 l/m 0 min 0 min 5 W/m 29,3 km/h (5 Bft) 89,36 %
22.11.2016 00:44 11,7 C 11,1 C 9,4 C 92 % 0 lf 1001,5 hPa 0,0 l/m 0 min 0 min 5 W/m 27,2 km/h (4 Bft) 93,62 %
22.11.2016 00:46 11,7 C 11,1 C 9,4 C 92 % 0 lf 1001,5 hPa 0,0 l/m 0 min 0 min 5 W/m 16,7 km/h (3 Bft) 91,49 %
22.11.2016 00:48 11,7 C 11,1 C 9,4 C 92 % 0 lf 1001,5 hPa 0,0 l/m 0 min 0 min 5 W/m 20,9 km/h (4 Bft) 91,49 %
22.11.2016 00:50 11,7 C 11,1 C 9,4 C 92 % 0 lf 1001,4 hPa 0,0 l/m 0 min 0 min 5 W/m 31,4 km/h (5 Bft) 91,49 %
22.11.2016 00:52 11,7 C 11,1 C 9,4 C 92 % 0 lf 1001,3 hPa 0,0 l/m 0 min 0 min 5 W/m 29,3 km/h (5 Bft) 89,13 %
22.11.2016 00:54 11,7 C 11,1 C 9,4 C 92 % 0 lf 1001,3 hPa 0,0 l/m 0 min 0 min 5 W/m 25,1 km/h (4 Bft) 89,36 %
22.11.2016 00:56 11,7 C 11,1 C 9,4 C 91 % 0 lf 1001,4 hPa 0,0 l/m 0 min 0 min 5 W/m 25,1 km/h (4 Bft) 96,23 %
22.11.2016 00:58 11,8 C 11,1 C 9,4 C 91 % 0 lf 1001,5 hPa 0,0 l/m 0 min 0 min 5 W/m 18,8 km/h (3 Bft) 95,74 %
22.11.2016 01:00 11,8 C 11,1 C 9,4 C 91 % 0 lf 1001,6 hPa 0,0 l/m 0 min 0 min 5 W/m 35,6 km/h (5 Bft) 91,49 %
22.11.2016 01:02 11,8 C 11,1 C 9,4 C 91 % 0 lf 1001,5 hPa 0,0 l/m 0 min 0 min 5 W/m 29,3 km/h (5 Bft) 91,84 %
22.11.2016 01:04 11,8 C 11,1 C 9,4 C 91 % 0 lf 1001,5 hPa 0,0 l/m 0 min 0 min 5 W/m 23,0 km/h (4 Bft) 89,36 %
22.11.2016 01:06 11,8 C 11,1 C 9,4 C 90 % 0 lf 1001,5 hPa 0,0 l/m 0 min 0 min 5 W/m 29,3 km/h (5 Bft) 91,49 %
22.11.2016 01:08 11,8 C 11,1 C 9,4 C 90 % 0 lf 1001,4 hPa 0,0 l/m 0 min 0 min 5 W/m 25,1 km/h (4 Bft) 97,87 %
22.11.2016 01:10 11,9 C 11,1 C 9,4 C 90 % 0 lf 1001,2 hPa 0,0 l/m 0 min 0 min 5 W/m 25,1 km/h (4 Bft) 95,74 %
22.11.2016 01:12 11,9 C 11,1 C 8,9 C 90 % 0 lf 1000,8 hPa 0,0 l/m 0 min 0 min 5 W/m 27,2 km/h (4 Bft) 91,49 %
22.11.2016 01:14 11,9 C 11,1 C 8,9 C 89 % 0 lf 1001,1 hPa 0,0 l/m 0 min 0 min 5 W/m 20,9 km/h (4 Bft) 97,83 %
22.11.2016 01:16 11,9 C 11,1 C 8,9 C 89 % 0 lf 1001,4 hPa 0,0 l/m 0 min 0 min 5 W/m 25,1 km/h (4 Bft) 97,87 %
22.11.2016 01:18 11,9 C 11,1 C 8,9 C 89 % 0 lf 1001,3 hPa 0,0 l/m 0 min 0 min 5 W/m 25,1 km/h (4 Bft) 95,74 %
22.11.2016 01:20 11,9 C 11,1 C 8,9 C 89 % 0 lf 1001,5 hPa 0,0 l/m 0 min 0 min 5 W/m 23,0 km/h (4 Bft) 91,49 %
22.11.2016 01:22 11,9 C 11,7 C 8,9 C 89 % 0 lf 1001,5 hPa 0,0 l/m 0 min 0 min 5 W/m 29,3 km/h (5 Bft) 95,74 %
22.11.2016 01:24 12,0 C 12,2 C 8,9 C 88 % 0 lf 1001,6 hPa 0,0 l/m 0 min 0 min 5 W/m 23,0 km/h (4 Bft) 95,65 %
22.11.2016 01:26 12,0 C 12,2 C 8,9 C 88 % 0 lf 1001,7 hPa 0,0 l/m 0 min 0 min 5 W/m 29,3 km/h (5 Bft) 89,36 %
22.11.2016 01:28 12,0 C 12,2 C 8,9 C 88 % 0 lf 1001,6 hPa 0,0 l/m 0 min 0 min 5 W/m 25,1 km/h (4 Bft) 97,87 %
22.11.2016 01:30 12,1 C 12,2 C 8,9 C 88 % 0 lf 1001,7 hPa 0,0 l/m 0 min 0 min 5 W/m 27,2 km/h (4 Bft) 91,49 %
22.11.2016 01:32 12,1 C 12,2 C 8,9 C 87 % 0 lf 1001,8 hPa 0,0 l/m 0 min 0 min 5 W/m 33,5 km/h (5 Bft) 97,83 %
22.11.2016 01:34 12,1 C 12,2 C 8,9 C 87 % 0 lf 1001,6 hPa 0,0 l/m 0 min 0 min 5 W/m 25,1 km/h (4 Bft) 95,74 %
22.11.2016 01:36 12,1 C 12,2 C 8,9 C 87 % 0 lf 1001,7 hPa 0,0 l/m 0 min 0 min 5 W/m 27,2 km/h (4 Bft) 97,83 %
22.11.2016 01:38 12,1 C 12,2 C 8,9 C 87 % 0 lf 1001,7 hPa 0,0 l/m 0 min 0 min 5 W/m 25,1 km/h (4 Bft) 95,74 %
22.11.2016 01:40 12,1 C 12,2 C 8,9 C 87 % 0 lf 1001,8 hPa 0,0 l/m 0 min 0 min 5 W/m 25,1 km/h (4 Bft) 97,87 %
22.11.2016 01:42 12,2 C 12,2 C 8,9 C 86 % 0 lf 1001,7 hPa 0,0 l/m 0 min 0 min 5 W/m 27,2 km/h (4 Bft) 93,62 %
22.11.2016 01:44 12,2 C 12,2 C 8,9 C 86 % 0 lf 1001,7 hPa 0,0 l/m 0 min 0 min 5 W/m 23,0 km/h (4 Bft) 97,87 %
22.11.2016 01:46 12,2 C 12,2 C 8,9 C 86 % 0 lf 1001,5 hPa 0,0 l/m 0 min 0 min 5 W/m 18,8 km/h (3 Bft) 95,74 %
22.11.2016 01:48 12,2 C 12,2 C 8,9 C 86 % 0 lf 1001,7 hPa 0,0 l/m 0 min 0 min 5 W/m 18,8 km/h (3 Bft) 93,48 %
22.11.2016 01:50 12,2 C 12,2 C 8,9 C 86 % 0 lf 1001,8 hPa 0,0 l/m 0 min 0 min 5 W/m 18,8 km/h (3 Bft) 95,74 %
22.11.2016 01:52 12,2 C 12,2 C 8,9 C 86 % 0 lf 1001,6 hPa 0,0 l/m 0 min 0 min 5 W/m 18,8 km/h (3 Bft) 97,87 %
22.11.2016 01:54 12,2 C 12,2 C 8,9 C 85 % 0 lf 1001,9 hPa 0,0 l/m 0 min 0 min 5 W/m 20,9 km/h (4 Bft) 97,87 %
22.11.2016 01:56 12,2 C 12,2 C 8,9 C 85 % 0 lf 1001,5 hPa 0,0 l/m 0 min 0 min 5 W/m 18,8 km/h (3 Bft) 97,87 %
22.11.2016 01:58 12,2 C 12,2 C 8,9 C 85 % 0 lf 1001,3 hPa 0,0 l/m 0 min 0 min 5 W/m 18,8 km/h (3 Bft) 100,00 %
22.11.2016 02:00 12,2 C 12,2 C 8,9 C 85 % 0 lf 1000,8 hPa 0,0 l/m 0 min 0 min 5 W/m 23,0 km/h (4 Bft) 95,65 %
22.11.2016 02:02 12,1 C 12,2 C 8,9 C 85 % 0 lf 1000,3 hPa 0,0 l/m 0 min 0 min 5 W/m 29,3 km/h (5 Bft) 100,00 %
22.11.2016 02:04 12,1 C 12,2 C 8,9 C 85 % 0 lf 1000,3 hPa 0,0 l/m 0 min 0 min 5 W/m 20,9 km/h (4 Bft) 95,74 %
22.11.2016 02:06 12,1 C 12,2 C 8,9 C 85 % 0 lf 1001,0 hPa 0,0 l/m 0 min 0 min 5 W/m 25,1 km/h (4 Bft) 97,87 %
22.11.2016 02:08 12,1 C 12,2 C 8,9 C 85 % 0 lf 1001,2 hPa 0,0 l/m 0 min 0 min 5 W/m 23,0 km/h (4 Bft) 100,00 %
22.11.2016 02:10 12,1 C 12,2 C 8,9 C 85 % 0 lf 1001,1 hPa 0,0 l/m 0 min 0 min 5 W/m 23,0 km/h (4 Bft) 100,00 %
22.11.2016 02:12 12,1 C 12,2 C 8,9 C 85 % 0 lf 1001,2 hPa 0,0 l/m 0 min 0 min 5 W/m 20,9 km/h (4 Bft) 97,83 %
22.11.2016 02:14 12,1 C 12,2 C 8,9 C 85 % 0 lf 1001,3 hPa 0,0 l/m 0 min 0 min 5 W/m 20,9 km/h (4 Bft) 95,74 %
22.11.2016 02:16 12,1 C 12,2 C 8,9 C 85 % 0 lf 1001,3 hPa 0,0 l/m 0 min 0 min 5 W/m 20,9 km/h (4 Bft) 95,74 %
22.11.2016 02:18 12,1 C 12,2 C 8,9 C 85 % 0 lf 1001,2 hPa 0,0 l/m 0 min 0 min 5 W/m 27,2 km/h (4 Bft) 97,87 %
22.11.2016 02:20 12,1 C 12,2 C 8,9 C 85 % 0 lf 1001,6 hPa 0,0 l/m 0 min 0 min 5 W/m 25,1 km/h (4 Bft) 100,00 %
22.11.2016 02:22 12,1 C 12,2 C 8,9 C 85 % 0 lf 1001,7 hPa 0,0 l/m 0 min 0 min 5 W/m 23,0 km/h (4 Bft) 95,74 %
22.11.2016 02:24 12,1 C 12,2 C 8,9 C 84 % 0 lf 1001,9 hPa 0,0 l/m 0 min 0 min 5 W/m 20,9 km/h (4 Bft) 97,83 %
22.11.2016 02:26 12,1 C 12,2 C 8,9 C 84 % 0 lf 1001,8 hPa 0,0 l/m 0 min 0 min 5 W/m 23,0 km/h (4 Bft) 97,87 %
22.11.2016 02:28 12,1 C 12,2 C 8,9 C 84 % 0 lf 1002,1 hPa 0,0 l/m 0 min 0 min 5 W/m 23,0 km/h (4 Bft) 93,62 %
22.11.2016 02:30 12,1 C 12,2 C 8,9 C 84 % 0 lf 1002,1 hPa 0,0 l/m 0 min 0 min 5 W/m 16,7 km/h (3 Bft) 97,87 %
22.11.2016 02:32 12,1 C 12,2 C 8,9 C 85 % 0 lf 1002,2 hPa 0,0 l/m 0 min 0 min 5 W/m 18,8 km/h (3 Bft) 97,87 %
22.11.2016 02:34 12,1 C 12,2 C 8,9 C 85 % 0 lf 1002,2 hPa 0,0 l/m 0 min 0 min 5 W/m 16,7 km/h (3 Bft) 93,48 %
22.11.2016 02:36 12,1 C 12,2 C 8,9 C 85 % 0 lf 1002,1 hPa 0,0 l/m 0 min 0 min 5 W/m 20,9 km/h (4 Bft) 95,74 %
22.11.2016 02:38 12,1 C 12,2 C 8,9 C 85 % 0 lf 1002,3 hPa 0,0 l/m 0 min 0 min 5 W/m 20,9 km/h (4 Bft) 97,87 %
22.11.2016 02:40 12,1 C 12,2 C 8,9 C 85 % 0 lf 1002,2 hPa 0,0 l/m 0 min 0 min 5 W/m 23,0 km/h (4 Bft) 95,74 %
22.11.2016 02:42 12,1 C 12,2 C 8,9 C 85 % 0 lf 1002,2 hPa 0,0 l/m 0 min 0 min 5 W/m 25,1 km/h (4 Bft) 97,87 %
22.11.2016 02:44 12,1 C 12,2 C 8,9 C 85 % 0 lf 1002,2 hPa 0,0 l/m 0 min 0 min 5 W/m 20,9 km/h (4 Bft) 93,62 %
22.11.2016 02:46 12,1 C 12,2 C 8,9 C 84 % 0 lf 1002,1 hPa 0,0 l/m 0 min 0 min 5 W/m 14,6 km/h (3 Bft) 93,62 %
22.11.2016 02:48 12,1 C 12,2 C 8,9 C 84 % 0 lf 1002,2 hPa 0,0 l/m 0 min 0 min 5 W/m 18,8 km/h (3 Bft) 95,65 %
22.11.2016 02:50 12,1 C 12,2 C 8,9 C 84 % 0 lf 1002,4 hPa 0,0 l/m 0 min 0 min 5 W/m 23,0 km/h (4 Bft) 93,62 %
22.11.2016 02:52 12,1 C 12,2 C 8,9 C 84 % 0 lf 1002,3 hPa 0,0 l/m 0 min 0 min 5 W/m 18,8 km/h (3 Bft) 97,87 %
22.11.2016 02:54 12,1 C 12,2 C 8,9 C 84 % 0 lf 1002,4 hPa 0,0 l/m 0 min 0 min 5 W/m 16,7 km/h (3 Bft) 97,87 %
22.11.2016 02:56 12,1 C 12,2 C 8,9 C 84 % 0 lf 1002,3 hPa 0,0 l/m 0 min 0 min 5 W/m 14,6 km/h (3 Bft) 95,74 %
22.11.2016 02:58 12,1 C 12,2 C 8,9 C 84 % 0 lf 1002,4 hPa 0,0 l/m 0 min 0 min 5 W/m 18,8 km/h (3 Bft) 95,65 %
22.11.2016 03:00 12,0 C 12,2 C 8,3 C 84 % 0 lf 1002,4 hPa 0,0 l/m 0 min 0 min 5 W/m 12,6 km/h (3 Bft) 97,87 %
22.11.2016 03:02 12,0 C 12,2 C 8,3 C 84 % 0 lf 1002,4 hPa 0,0 l/m 0 min 0 min 5 W/m 16,7 km/h (3 Bft) 97,87 %
22.11.2016 03:04 12,0 C 12,2 C 8,3 C 84 % 0 lf 1002,4 hPa 0,0 l/m 0 min 0 min 5 W/m 20,9 km/h (4 Bft) 97,87 %
22.11.2016 03:06 12,0 C 12,2 C 8,3 C 84 % 0 lf 1002,4 hPa 0,0 l/m 0 min 0 min 5 W/m 18,8 km/h (3 Bft) 89,36 %
22.11.2016 03:08 12,0 C 12,2 C 8,3 C 83 % 0 lf 1002,4 hPa 0,0 l/m 0 min 0 min 5 W/m 25,1 km/h (4 Bft) 97,87 %
22.11.2016 03:10 12,0 C 12,2 C 8,3 C 83 % 0 lf 1002,4 hPa 0,0 l/m 0 min 0 min 5 W/m 25,1 km/h (4 Bft) 97,83 %
22.11.2016 03:12 12,0 C 12,2 C 8,3 C 83 % 0 lf 1002,2 hPa 0,0 l/m 0 min 0 min 5 W/m 16,7 km/h (3 Bft) 97,87 %
22.11.2016 03:14 12,0 C 12,2 C 8,3 C 83 % 0 lf 1002,2 hPa 0,0 l/m 0 min 0 min 5 W/m 20,9 km/h (4 Bft) 97,87 %
22.11.2016 03:16 12,0 C 12,2 C 8,3 C 83 % 0 lf 1002,3 hPa 0,0 l/m 0 min 0 min 5 W/m 14,6 km/h (3 Bft) 95,74 %
22.11.2016 03:18 12,0 C 12,2 C 8,3 C 82 % 0 lf 1002,4 hPa 0,0 l/m 0 min 0 min 5 W/m 20,9 km/h (4 Bft) 93,62 %
22.11.2016 03:20 12,0 C 12,2 C 8,3 C 82 % 0 lf 1002,4 hPa 0,0 l/m 0 min 0 min 5 W/m 18,8 km/h (3 Bft) 95,74 %
22.11.2016 03:22 12,0 C 12,2 C 8,3 C 82 % 0 lf 1002,4 hPa 0,0 l/m 0 min 0 min 5 W/m 16,7 km/h (3 Bft) 95,65 %
22.11.2016 03:24 12,0 C 12,2 C 8,3 C 82 % 0 lf 1002,4 hPa 0,0 l/m 0 min 0 min 5 W/m 16,7 km/h (3 Bft) 93,62 %
22.11.2016 03:26 12,0 C 12,2 C 8,3 C 82 % 0 lf 1002,2 hPa 0,0 l/m 0 min 0 min 5 W/m 16,7 km/h (3 Bft) 95,74 %
22.11.2016 03:28 12,0 C 12,2 C 8,3 C 82 % 0 lf 1002,2 hPa 0,0 l/m 0 min 0 min 5 W/m 23,0 km/h (4 Bft) 97,87 %
22.11.2016 03:30 12,0 C 12,2 C 8,3 C 82 % 0 lf 1002,2 hPa 0,0 l/m 0 min 0 min 5 W/m 14,6 km/h (3 Bft) 95,74 %
22.11.2016 03:32 12,0 C 11,7 C 8,3 C 82 % 0 lf 1002,2 hPa 0,0 l/m 0 min 0 min 5 W/m 16,7 km/h (3 Bft) 97,87 %
22.11.2016 03:34 12,0 C 11,7 C 8,3 C 82 % 0 lf 1002,1 hPa 0,0 l/m 0 min 0 min 5 W/m 16,7 km/h (3 Bft) 93,48 %
22.11.2016 03:36 12,0 C 12,2 C 8,3 C 82 % 0 lf 1002,4 hPa 0,0 l/m 0 min 0 min 5 W/m 20,9 km/h (4 Bft) 97,87 %
22.11.2016 03:38 11,9 C 12,2 C 8,3 C 82 % 0 lf 1002,6 hPa 0,0 l/m 0 min 0 min 5 W/m 16,7 km/h (3 Bft) 95,74 %
22.11.2016 03:40 11,9 C 12,2 C 8,3 C 82 % 0 lf 1002,6 hPa 0,0 l/m 0 min 0 min 5 W/m 16,7 km/h (3 Bft) 97,87 %
22.11.2016 03:42 11,9 C 11,7 C 8,3 C 82 % 0 lf 1002,6 hPa 0,0 l/m 0 min 0 min 5 W/m 16,7 km/h (3 Bft) 93,62 %
22.11.2016 03:44 11,9 C 12,2 C 8,3 C 82 % 0 lf 1002,7 hPa 0,0 l/m 0 min 0 min 5 W/m 16,7 km/h (3 Bft) 97,87 %
22.11.2016 03:46 11,9 C 12,2 C 8,3 C 82 % 0 lf 1002,6 hPa 0,0 l/m 0 min 0 min 5 W/m 25,1 km/h (4 Bft) 97,83 %
22.11.2016 03:48 11,9 C 12,2 C 8,3 C 82 % 0 lf 1002,4 hPa 0,0 l/m 0 min 0 min 5 W/m 25,1 km/h (4 Bft) 100,00 %
22.11.2016 03:50 11,9 C 12,2 C 8,3 C 82 % 0 lf 1002,5 hPa 0,0 l/m 0 min 0 min 5 W/m 14,6 km/h (3 Bft) 95,74 %
22.11.2016 03:52 11,9 C 12,2 C 8,3 C 82 % 0 lf 1002,4 hPa 0,0 l/m 0 min 0 min 5 W/m 20,9 km/h (4 Bft) 100,00 %
22.11.2016 03:54 11,9 C 12,2 C 8,3 C 82 % 0 lf 1002,5 hPa 0,0 l/m 0 min 0 min 5 W/m 23,0 km/h (4 Bft) 100,00 %
22.11.2016 03:56 11,9 C 12,2 C 8,3 C 82 % 0 lf 1002,3 hPa 0,0 l/m 0 min 0 min 5 W/m 14,6 km/h (3 Bft) 93,48 %
22.11.2016 03:58 11,9 C 12,2 C 8,3 C 82 % 0 lf 1002,4 hPa 0,0 l/m 0 min 0 min 5 W/m 12,6 km/h (3 Bft) 97,87 %
22.11.2016 04:00 11,9 C 11,7 C 8,3 C 82 % 0 lf 1002,6 hPa 0,0 l/m 0 min 0 min 5 W/m 14,6 km/h (3 Bft) 97,87 %
22.11.2016 04:02 11,8 C 12,2 C 8,3 C 82 % 0 lf 1002,8 hPa 0,0 l/m 0 min 0 min 5 W/m 23,0 km/h (4 Bft) 95,65 %
22.11.2016 04:04 11,8 C 12,2 C 8,3 C 81 % 0 lf 1002,8 hPa 0,0 l/m 0 min 0 min 5 W/m 27,2 km/h (4 Bft) 97,87 %
22.11.2016 04:06 11,8 C 12,2 C 8,3 C 81 % 0 lf 1002,6 hPa 0,0 l/m 0 min 0 min 5 W/m 16,7 km/h (3 Bft) 100,00 %
22.11.2016 04:08 11,8 C 12,2 C 9,4 C 81 % 0 lf 1002,5 hPa 0,0 l/m 0 min 0 min 5 W/m 16,7 km/h (3 Bft) 93,48 %
22.11.2016 04:10 11,8 C 12,2 C 9,4 C 81 % 0 lf 1002,7 hPa 0,0 l/m 0 min 0 min 5 W/m 18,8 km/h (3 Bft) 91,49 %
22.11.2016 04:12 11,9 C 12,2 C 9,4 C 81 % 0 lf 1002,6 hPa 0,0 l/m 0 min 0 min 5 W/m 20,9 km/h (4 Bft) 93,62 %
22.11.2016 04:14 11,9 C 12,2 C 9,4 C 81 % 0 lf 1002,5 hPa 0,0 l/m 0 min 0 min 5 W/m 23,0 km/h (4 Bft) 93,62 %
22.11.2016 04:16 11,9 C 12,2 C 9,4 C 81 % 0 lf 1002,3 hPa 0,0 l/m 0 min 0 min 5 W/m 18,8 km/h (3 Bft) 93,62 %
22.11.2016 04:18 11,9 C 12,2 C 9,4 C 81 % 0 lf 1002,6 hPa 0,0 l/m 0 min 0 min 5 W/m 16,7 km/h (3 Bft) 91,49 %
22.11.2016 04:20 11,9 C 12,2 C 9,4 C 81 % 0 lf 1002,6 hPa 0,0 l/m 0 min 0 min 5 W/m 14,6 km/h (3 Bft) 93,48 %
22.11.2016 04:22 11,9 C 12,2 C 9,4 C 81 % 0 lf 1002,7 hPa 0,0 l/m 0 min 0 min 5 W/m 25,1 km/h (4 Bft) 93,62 %
22.11.2016 04:24 11,9 C 12,2 C 9,4 C 81 % 0 lf 1002,9 hPa 0,0 l/m 0 min 0 min 5 W/m 18,8 km/h (3 Bft) 91,49 %
22.11.2016 04:26 11,9 C 12,2 C 9,4 C 81 % 0 lf 1002,8 hPa 0,0 l/m 0 min 0 min 5 W/m 18,8 km/h (3 Bft) 91,49 %
22.11.2016 04:28 11,9 C 12,2 C 10,0 C 81 % 0 lf 1002,9 hPa 0,0 l/m 0 min 0 min 5 W/m 25,1 km/h (4 Bft) 93,62 %
22.11.2016 04:30 11,9 C 12,2 C 10,0 C 81 % 0 lf 1002,9 hPa 0,0 l/m 0 min 0 min 5 W/m 16,7 km/h (3 Bft) 91,49 %
22.11.2016 04:32 11,9 C 12,2 C 10,0 C 81 % 0 lf 1002,9 hPa 0,0 l/m 0 min 0 min 5 W/m 20,9 km/h (4 Bft) 89,13 %
22.11.2016 04:34 11,9 C 12,2 C 10,0 C 81 % 0 lf 1003,0 hPa 0,0 l/m 0 min 0 min 5 W/m 16,7 km/h (3 Bft) 91,49 %
22.11.2016 04:36 11,9 C 12,2 C 10,0 C 80 % 0 lf 1002,9 hPa 0,0 l/m 0 min 0 min 5 W/m 23,0 km/h (4 Bft) 93,62 %
22.11.2016 04:38 11,9 C 12,2 C 10,0 C 80 % 0 lf 1003,2 hPa 0,0 l/m 0 min 0 min 5 W/m 20,9 km/h (4 Bft) 93,62 %
22.11.2016 04:40 11,9 C 12,2 C 10,0 C 80 % 0 lf 1003,0 hPa 0,0 l/m 0 min 0 min 5 W/m 20,9 km/h (4 Bft) 93,62 %
22.11.2016 04:42 11,9 C 12,2 C 10,0 C 80 % 0 lf 1003,3 hPa 0,0 l/m 0 min 0 min 5 W/m 18,8 km/h (3 Bft) 91,49 %
22.11.2016 04:44 11,9 C 11,7 C 9,4 C 80 % 0 lf 1003,2 hPa 0,0 l/m 0 min 0 min 5 W/m 14,6 km/h (3 Bft) 93,48 %
22.11.2016 04:46 11,9 C 11,7 C 9,4 C 81 % 0 lf 1003,1 hPa 0,0 l/m 0 min 0 min 5 W/m 23,0 km/h (4 Bft) 93,62 %
22.11.2016 04:48 11,9 C 11,7 C 10,0 C 81 % 0 lf 1003,2 hPa 0,0 l/m 0 min 0 min 5 W/m 16,7 km/h (3 Bft) 95,74 %
22.11.2016 04:50 11,8 C 11,7 C 9,4 C 80 % 0 lf 1003,4 hPa 0,0 l/m 0 min 0 min 5 W/m 20,9 km/h (4 Bft) 95,74 %
22.11.2016 04:52 11,8 C 11,7 C 9,4 C 81 % 0 lf 1003,5 hPa 0,0 l/m 0 min 0 min 5 W/m 25,1 km/h (4 Bft) 93,62 %
22.11.2016 04:54 11,8 C 11,7 C 9,4 C 81 % 0 lf 1003,5 hPa 0,0 l/m 0 min 0 min 5 W/m 27,2 km/h (4 Bft) 91,49 %
22.11.2016 04:56 11,8 C 11,7 C 9,4 C 81 % 0 lf 1003,5 hPa 0,0 l/m 0 min 0 min 5 W/m 18,8 km/h (3 Bft) 91,30 %
22.11.2016 04:58 11,8 C 11,7 C 9,4 C 81 % 0 lf 1003,7 hPa 0,0 l/m 0 min 0 min 5 W/m 20,9 km/h (4 Bft) 95,74 %
22.11.2016 05:00 11,8 C 11,7 C 9,4 C 81 % 0 lf 1003,9 hPa 0,0 l/m 0 min 0 min 5 W/m 16,7 km/h (3 Bft) 93,62 %
22.11.2016 05:02 11,8 C 11,7 C 9,4 C 81 % 0 lf 1004,0 hPa 0,0 l/m 0 min 0 min 5 W/m 16,7 km/h (3 Bft) 97,87 %
22.11.2016 05:04 11,8 C 11,7 C 9,4 C 81 % 0 lf 1004,0 hPa 0,0 l/m 0 min 0 min 5 W/m 18,8 km/h (3 Bft) 93,62 %
22.11.2016 05:06 11,8 C 11,7 C 9,4 C 81 % 0 lf 1004,0 hPa 0,0 l/m 0 min 0 min 5 W/m 23,0 km/h (4 Bft) 95,74 %
22.11.2016 05:08 11,7 C 11,7 C 9,4 C 81 % 0 lf 1003,9 hPa 0,0 l/m 0 min 0 min 5 W/m 20,9 km/h (4 Bft) 97,83 %
22.11.2016 05:10 11,7 C 11,7 C 9,4 C 81 % 0 lf 1004,0 hPa 0,0 l/m 0 min 0 min 5 W/m 16,7 km/h (3 Bft) 100,00 %
22.11.2016 05:12 11,7 C 11,7 C 9,4 C 81 % 0 lf 1003,9 hPa 0,0 l/m 0 min 0 min 5 W/m 16,7 km/h (3 Bft) 93,62 %
22.11.2016 05:14 11,7 C 11,7 C 10,0 C 81 % 0 lf 1004,1 hPa 0,0 l/m 0 min 0 min 5 W/m 25,1 km/h (4 Bft) 95,74 %
22.11.2016 05:16 11,7 C 11,7 C 10,0 C 81 % 0 lf 1004,1 hPa 0,0 l/m 0 min 0 min 5 W/m 23,0 km/h (4 Bft) 97,87 %
22.11.2016 05:18 11,7 C 11,7 C 9,4 C 81 % 0 lf 1004,2 hPa 0,0 l/m 0 min 0 min 5 W/m 18,8 km/h (3 Bft) 97,83 %
22.11.2016 05:20 11,7 C 11,7 C 10,0 C 81 % 0 lf 1004,2 hPa 0,0 l/m 0 min 0 min 5 W/m 25,1 km/h (4 Bft) 100,00 %
22.11.2016 05:22 11,7 C 11,7 C 10,0 C 81 % 0 lf 1004,1 hPa 0,0 l/m 0 min 0 min 5 W/m 18,8 km/h (3 Bft) 97,87 %
22.11.2016 05:24 11,7 C 11,7 C 9,4 C 81 % 0 lf 1004,0 hPa 0,0 l/m 0 min 0 min 5 W/m 18,8 km/h (3 Bft) 100,00 %
22.11.2016 05:26 11,7 C 11,7 C 9,4 C 81 % 0 lf 1004,0 hPa 0,0 l/m 0 min 0 min 5 W/m 18,8 km/h (3 Bft) 95,74 %
22.11.2016 05:28 11,7 C 11,7 C 9,4 C 81 % 0 lf 1003,9 hPa 0,0 l/m 0 min 0 min 5 W/m 20,9 km/h (4 Bft) 100,00 %
22.11.2016 05:30 11,7 C 11,7 C 9,4 C 81 % 0 lf 1003,8 hPa 0,0 l/m 0 min 0 min 5 W/m 14,6 km/h (3 Bft) 97,83 %
22.11.2016 05:32 11,7 C 11,7 C 9,4 C 80 % 0 lf 1003,9 hPa 0,0 l/m 0 min 0 min 5 W/m 18,8 km/h (3 Bft) 95,74 %
22.11.2016 05:34 11,7 C 11,7 C 9,4 C 80 % 0 lf 1003,8 hPa 0,0 l/m 0 min 0 min 5 W/m 14,6 km/h (3 Bft) 100,00 %
22.11.2016 05:36 11,7 C 11,7 C 9,4 C 80 % 0 lf 1003,7 hPa 0,0 l/m 0 min 0 min 5 W/m 14,6 km/h (3 Bft) 93,62 %
22.11.2016 05:38 11,7 C 11,7 C 9,4 C 80 % 0 lf 1003,8 hPa 0,0 l/m 0 min 0 min 5 W/m 14,6 km/h (3 Bft) 97,87 %
22.11.2016 05:40 11,7 C 11,7 C 9,4 C 81 % 0 lf 1003,8 hPa 0,0 l/m 0 min 0 min 5 W/m 14,6 km/h (3 Bft) 100,00 %
22.11.2016 05:42 11,7 C 11,7 C 9,4 C 81 % 0 lf 1003,9 hPa 0,0 l/m 0 min 0 min 5 W/m 12,6 km/h (3 Bft) 97,83 %
22.11.2016 05:44 11,6 C 11,7 C 9,4 C 81 % 0 lf 1003,8 hPa 0,0 l/m 0 min 0 min 5 W/m 14,6 km/h (3 Bft) 97,87 %
22.11.2016 05:46 11,6 C 11,7 C 9,4 C 81 % 0 lf 1003,8 hPa 0,0 l/m 0 min 0 min 5 W/m 14,6 km/h (3 Bft) 97,87 %
22.11.2016 05:48 11,6 C 11,7 C 9,4 C 81 % 0 lf 1003,8 hPa 0,0 l/m 0 min 0 min 5 W/m 20,9 km/h (4 Bft) 97,87 %
22.11.2016 05:50 11,6 C 11,7 C 9,4 C 81 % 0 lf 1004,0 hPa 0,0 l/m 0 min 0 min 5 W/m 16,7 km/h (3 Bft) 97,87 %
22.11.2016 05:52 11,6 C 11,7 C 9,4 C 81 % 0 lf 1004,1 hPa 0,0 l/m 0 min 0 min 5 W/m 14,6 km/h (3 Bft) 95,74 %
22.11.2016 05:54 11,6 C 11,7 C 9,4 C 81 % 0 lf 1004,0 hPa 0,0 l/m 0 min 0 min 5 W/m 16,7 km/h (3 Bft) 93,48 %
22.11.2016 05:56 11,6 C 11,7 C 9,4 C 81 % 0 lf 1004,0 hPa 0,0 l/m 0 min 0 min 5 W/m 14,6 km/h (3 Bft) 97,87 %
22.11.2016 05:58 11,5 C 11,7 C 9,4 C 81 % 0 lf 1004,1 hPa 0,0 l/m 0 min 0 min 5 W/m 12,6 km/h (3 Bft) 95,74 %
22.11.2016 06:00 11,5 C 11,7 C 9,4 C 81 % 0 lf 1004,1 hPa 0,0 l/m 0 min 0 min 5 W/m 16,7 km/h (3 Bft) 93,62 %
22.11.2016 06:02 11,6 C 11,7 C 9,4 C 81 % 0 lf 1004,1 hPa 0,0 l/m 0 min 0 min 5 W/m 16,7 km/h (3 Bft) 95,74 %
22.11.2016 06:06 11,5 C 11,7 C 9,4 C 81 % 0 lf 1004,2 hPa 0,0 l/m 0 min 0 min 5 W/m 16,7 km/h (3 Bft) 97,87 %
22.11.2016 06:08 11,5 C 11,7 C 9,4 C 81 % 0 lf 1004,5 hPa 0,0 l/m 0 min 0 min 5 W/m 14,6 km/h (3 Bft) 93,62 %
22.11.2016 06:10 11,4 C 11,7 C 9,4 C 81 % 0 lf 1004,6 hPa 0,0 l/m 0 min 0 min 5 W/m 18,8 km/h (3 Bft) 85,11 %
22.11.2016 06:12 11,4 C 11,7 C 9,4 C 81 % 0 lf 1004,5 hPa 0,0 l/m 0 min 0 min 5 W/m 14,6 km/h (3 Bft) 95,74 %
22.11.2016 06:14 11,4 C 11,7 C 9,4 C 81 % 0 lf 1004,6 hPa 0,0 l/m 0 min 0 min 5 W/m 14,6 km/h (3 Bft) 95,74 %
22.11.2016 06:16 11,4 C 11,7 C 9,4 C 81 % 0 lf 1004,7 hPa 0,0 l/m 0 min 0 min 5 W/m 20,9 km/h (4 Bft) 93,62 %
22.11.2016 06:18 11,4 C 11,7 C 9,4 C 81 % 0 lf 1004,9 hPa 0,0 l/m 0 min 0 min 5 W/m 18,8 km/h (3 Bft) 95,65 %
22.11.2016 06:20 11,4 C 11,7 C 9,4 C 81 % 0 lf 1004,9 hPa 0,0 l/m 0 min 0 min 5 W/m 16,7 km/h (3 Bft) 95,74 %
22.11.2016 06:22 11,4 C 11,7 C 9,4 C 81 % 0 lf 1004,7 hPa 0,0 l/m 0 min 0 min 5 W/m 18,8 km/h (3 Bft) 95,74 %
22.11.2016 06:24 11,4 C 11,7 C 9,4 C 81 % 0 lf 1004,7 hPa 0,0 l/m 0 min 0 min 5 W/m 14,6 km/h (3 Bft) 95,74 %
22.11.2016 06:26 11,4 C 11,7 C 9,4 C 81 % 0 lf 1004,9 hPa 0,0 l/m 0 min 0 min 5 W/m 18,8 km/h (3 Bft) 93,62 %
22.11.2016 06:28 11,4 C 11,7 C 9,4 C 81 % 0 lf 1005,1 hPa 0,0 l/m 0 min 0 min 5 W/m 23,0 km/h (4 Bft) 95,74 %
22.11.2016 06:30 11,4 C 11,7 C 9,4 C 82 % 0 lf 1005,1 hPa 0,0 l/m 0 min 0 min 5 W/m 16,7 km/h (3 Bft) 100,00 %
22.11.2016 06:32 11,4 C 11,1 C 9,4 C 82 % 0 lf 1005,1 hPa 0,0 l/m 0 min 0 min 5 W/m 18,8 km/h (3 Bft) 93,62 %
22.11.2016 06:34 11,4 C 11,1 C 9,4 C 82 % 0 lf 1005,2 hPa 0,0 l/m 0 min 0 min 5 W/m 20,9 km/h (4 Bft) 97,87 %
22.11.2016 06:36 11,3 C 11,1 C 8,9 C 82 % 0 lf 1005,1 hPa 0,0 l/m 0 min 0 min 5 W/m 16,7 km/h (3 Bft) 97,87 %
22.11.2016 06:38 11,3 C 11,1 C 8,9 C 82 % 0 lf 1005,2 hPa 0,0 l/m 0 min 0 min 5 W/m 16,7 km/h (3 Bft) 93,62 %
22.11.2016 06:40 11,3 C 11,1 C 8,9 C 82 % 0 lf 1005,1 hPa 0,0 l/m 0 min 0 min 5 W/m 16,7 km/h (3 Bft) 95,65 %
22.11.2016 06:42 11,3 C 11,1 C 8,9 C 82 % 0 lf 1005,1 hPa 0,0 l/m 0 min 0 min 5 W/m 14,6 km/h (3 Bft) 100,00 %
22.11.2016 06:44 11,3 C 11,1 C 8,9 C 82 % 0 lf 1005,1 hPa 0,0 l/m 0 min 0 min 5 W/m 14,6 km/h (3 Bft) 91,49 %
22.11.2016 06:46 11,3 C 11,1 C 8,9 C 82 % 0 lf 1005,1 hPa 0,0 l/m 0 min 0 min 5 W/m 16,7 km/h (3 Bft) 100,00 %
22.11.2016 06:48 11,2 C 11,1 C 8,9 C 82 % 0 lf 1005,1 hPa 0,0 l/m 0 min 0 min 5 W/m 14,6 km/h (3 Bft) 95,74 %
22.11.2016 06:50 11,2 C 11,1 C 8,9 C 82 % 0 lf 1005,2 hPa 0,0 l/m 0 min 0 min 5 W/m 12,6 km/h (3 Bft) 100,00 %
22.11.2016 06:52 11,2 C 11,1 C 8,9 C 82 % 0 lf 1005,2 hPa 0,0 l/m 0 min 0 min 5 W/m 12,6 km/h (3 Bft) 100,00 %
22.11.2016 06:54 11,2 C 11,1 C 8,9 C 82 % 0 lf 1005,2 hPa 0,0 l/m 0 min 0 min 5 W/m 16,7 km/h (3 Bft) 97,83 %
22.11.2016 06:56 11,2 C 11,1 C 8,9 C 82 % 0 lf 1005,2 hPa 0,0 l/m 0 min 0 min 5 W/m 14,6 km/h (3 Bft) 100,00 %
22.11.2016 06:58 11,2 C 11,1 C 8,9 C 82 % 0 lf 1005,1 hPa 0,0 l/m 0 min 0 min 5 W/m 12,6 km/h (3 Bft) 100,00 %
22.11.2016 07:00 11,2 C 11,1 C 8,9 C 83 % 0 lf 1005,2 hPa 0,0 l/m 0 min 0 min 5 W/m 14,6 km/h (3 Bft) 95,74 %
22.11.2016 07:02 11,2 C 11,1 C 8,9 C 83 % 0 lf 1005,1 hPa 0,0 l/m 0 min 0 min 5 W/m 16,7 km/h (3 Bft) 100,00 %
22.11.2016 07:04 11,1 C 11,1 C 8,9 C 83 % 0 lf 1005,1 hPa 0,0 l/m 0 min 0 min 5 W/m 12,6 km/h (3 Bft) 97,83 %
22.11.2016 07:06 11,1 C 11,1 C 8,9 C 83 % 0 lf 1005,2 hPa 0,0 l/m 0 min 0 min 5 W/m 12,6 km/h (3 Bft) 93,62 %
22.11.2016 07:08 11,1 C 11,1 C 8,9 C 83 % 0 lf 1005,2 hPa 0,0 l/m 0 min 0 min 5 W/m 14,6 km/h (3 Bft) 95,74 %
22.11.2016 07:10 11,1 C 11,1 C 8,9 C 83 % 0 lf 1005,3 hPa 0,0 l/m 0 min 0 min 5 W/m 10,5 km/h (2 Bft) 93,62 %
22.11.2016 07:12 11,1 C 11,1 C 8,9 C 83 % 0 lf 1005,3 hPa 0,0 l/m 0 min 0 min 5 W/m 18,8 km/h (3 Bft) 95,74 %
22.11.2016 07:14 11,1 C 11,1 C 8,9 C 83 % 0 lf 1005,2 hPa 0,0 l/m 0 min 0 min 5 W/m 14,6 km/h (3 Bft) 97,87 %
22.11.2016 07:16 11,1 C 11,1 C 8,9 C 83 % 0 lf 1005,2 hPa 0,0 l/m 0 min 0 min 5 W/m 12,6 km/h (3 Bft) 97,83 %
22.11.2016 07:18 11,1 C 11,1 C 8,9 C 83 % 0 lf 1005,4 hPa 0,0 l/m 0 min 0 min 5 W/m 14,6 km/h (3 Bft) 95,74 %
22.11.2016 07:20 11,1 C 11,1 C 8,9 C 83 % 0 lf 1005,4 hPa 0,0 l/m 0 min 0 min 5 W/m 16,7 km/h (3 Bft) 93,62 %
22.11.2016 07:22 11,0 C 11,1 C 8,9 C 83 % 0 lf 1005,4 hPa 0,0 l/m 0 min 0 min 5 W/m 14,6 km/h (3 Bft) 95,74 %
22.11.2016 07:24 11,0 C 11,1 C 8,9 C 83 % 0 lf 1005,3 hPa 0,0 l/m 0 min 0 min 5 W/m 14,6 km/h (3 Bft) 97,87 %
22.11.2016 07:26 11,0 C 11,1 C 8,9 C 83 % 0 lf 1005,4 hPa 0,0 l/m 0 min 0 min 5 W/m 14,6 km/h (3 Bft) 95,74 %
22.11.2016 07:28 11,0 C 11,1 C 8,9 C 83 % 0 lf 1005,4 hPa 0,0 l/m 0 min 0 min 5 W/m 14,6 km/h (3 Bft) 97,83 %
22.11.2016 07:30 11,0 C 11,1 C 8,9 C 83 % 0 lf 1005,3 hPa 0,0 l/m 0 min 0 min 5 W/m 18,8 km/h (3 Bft) 95,74 %
22.11.2016 07:32 10,9 C 11,1 C 8,9 C 83 % 0 lf 1005,3 hPa 0,0 l/m 0 min 0 min 5 W/m 14,6 km/h (3 Bft) 93,62 %
22.11.2016 07:34 10,9 C 11,1 C 8,9 C 83 % 0 lf 1005,4 hPa 0,0 l/m 0 min 0 min 5 W/m 12,6 km/h (3 Bft) 95,74 %
22.11.2016 07:36 10,9 C 11,1 C 8,9 C 84 % 0 lf 1005,4 hPa 0,0 l/m 0 min 0 min 5 W/m 14,6 km/h (3 Bft) 97,87 %
22.11.2016 07:38 10,9 C 11,1 C 8,9 C 84 % 0 lf 1005,4 hPa 0,0 l/m 0 min 0 min 5 W/m 10,5 km/h (2 Bft) 95,65 %
22.11.2016 07:40 10,9 C 11,1 C 8,9 C 84 % 0 lf 1005,4 hPa 0,0 l/m 0 min 0 min 5 W/m 12,6 km/h (3 Bft) 97,87 %
22.11.2016 07:42 10,9 C 11,1 C 8,9 C 84 % 0 lf 1005,5 hPa 0,0 l/m 0 min 0 min 5 W/m 14,6 km/h (3 Bft) 97,87 %
22.11.2016 07:44 10,9 C 11,1 C 8,9 C 84 % 0 lf 1005,6 hPa 0,0 l/m 0 min 0 min 5 W/m 14,6 km/h (3 Bft) 97,87 %
22.11.2016 07:46 10,9 C 11,1 C 8,9 C 84 % 0 lf 1005,7 hPa 0,0 l/m 0 min 0 min 5 W/m 16,7 km/h (3 Bft) 97,87 %
22.11.2016 07:48 10,9 C 11,1 C 8,9 C 84 % 0 lf 1005,8 hPa 0,0 l/m 0 min 0 min 5 W/m 16,7 km/h (3 Bft) 93,62 %
22.11.2016 07:50 10,9 C 11,1 C 8,9 C 84 % 0 lf 1005,8 hPa 0,0 l/m 0 min 0 min 5 W/m 14,6 km/h (3 Bft) 93,62 %
22.11.2016 07:52 10,9 C 11,1 C 8,9 C 84 % 0 lf 1005,7 hPa 0,0 l/m 0 min 0 min 5 W/m 14,6 km/h (3 Bft) 93,48 %
22.11.2016 07:54 10,9 C 11,1 C 8,9 C 84 % 0 lf 1005,8 hPa 0,0 l/m 0 min 0 min 5 W/m 14,6 km/h (3 Bft) 89,36 %
22.11.2016 07:56 10,9 C 10,6 C 8,9 C 84 % 0 lf 1005,8 hPa 0,0 l/m 0 min 0 min 5 W/m 14,6 km/h (3 Bft) 97,87 %
22.11.2016 07:58 10,9 C 10,6 C 8,9 C 84 % 0 lf 1005,8 hPa 0,0 l/m 0 min 0 min 5 W/m 14,6 km/h (3 Bft) 97,87 %
22.11.2016 08:00 10,9 C 10,6 C 8,3 C 84 % 0 lf 1005,8 hPa 0,0 l/m 0 min 0 min 5 W/m 10,5 km/h (2 Bft) 95,74 %
22.11.2016 08:02 10,8 C 10,6 C 8,3 C 84 % 0 lf 1005,9 hPa 0,0 l/m 0 min 0 min 6 W/m 12,6 km/h (3 Bft) 93,48 %
22.11.2016 08:04 10,8 C 10,6 C 8,3 C 84 % 0 lf 1005,9 hPa 0,0 l/m 0 min 0 min 7 W/m 14,6 km/h (3 Bft) 89,36 %
22.11.2016 08:06 10,8 C 10,6 C 8,3 C 84 % 0 lf 1006,0 hPa 0,0 l/m 0 min 0 min 7 W/m 12,6 km/h (3 Bft) 93,62 %
22.11.2016 08:08 10,8 C 10,6 C 8,3 C 84 % 0 lf 1006,1 hPa 0,0 l/m 0 min 0 min 7 W/m 12,6 km/h (3 Bft) 93,62 %
22.11.2016 08:10 10,8 C 10,6 C 8,3 C 84 % 0 lf 1006,1 hPa 0,0 l/m 0 min 0 min 7 W/m 18,8 km/h (3 Bft) 95,74 %
22.11.2016 08:12 10,8 C 10,6 C 8,3 C 84 % 0 lf 1006,2 hPa 0,0 l/m 0 min 0 min 8 W/m 14,6 km/h (3 Bft) 91,49 %
22.11.2016 08:14 10,8 C 10,6 C 8,3 C 84 % 0 lf 1006,2 hPa 0,0 l/m 0 min 0 min 9 W/m 12,6 km/h (3 Bft) 93,48 %
22.11.2016 08:16 10,8 C 10,6 C 8,9 C 84 % 0 lf 1006,2 hPa 0,0 l/m 0 min 0 min 9 W/m 16,7 km/h (3 Bft) 93,62 %
22.11.2016 08:18 10,8 C 10,6 C 8,3 C 84 % 0 lf 1006,3 hPa 0,0 l/m 0 min 0 min 9 W/m 12,6 km/h (3 Bft) 91,49 %
22.11.2016 08:20 10,7 C 10,6 C 8,3 C 84 % 0 lf 1006,3 hPa 0,0 l/m 0 min 0 min 11 W/m 12,6 km/h (3 Bft) 93,62 %
22.11.2016 08:22 10,7 C 10,6 C 8,9 C 84 % 0 lf 1006,3 hPa 0,0 l/m 0 min 0 min 11 W/m 18,8 km/h (3 Bft) 89,36 %
22.11.2016 08:24 10,7 C 10,6 C 8,3 C 84 % 0 lf 1006,4 hPa 0,0 l/m 0 min 0 min 12 W/m 14,6 km/h (3 Bft) 95,74 %
22.11.2016 08:26 10,7 C 10,6 C 8,3 C 84 % 0 lf 1006,4 hPa 0,0 l/m 0 min 0 min 12 W/m 16,7 km/h (3 Bft) 93,48 %
22.11.2016 08:28 10,7 C 10,6 C 8,3 C 84 % 0 lf 1006,4 hPa 0,0 l/m 0 min 0 min 13 W/m 20,9 km/h (4 Bft) 91,49 %
22.11.2016 08:30 10,7 C 10,6 C 8,3 C 84 % 0 lf 1006,5 hPa 0,0 l/m 0 min 0 min 14 W/m 16,7 km/h (3 Bft) 93,62 %
22.11.2016 08:32 10,7 C 10,6 C 8,3 C 84 % 0 lf 1006,7 hPa 0,0 l/m 0 min 0 min 14 W/m 18,8 km/h (3 Bft) 93,62 %
22.11.2016 08:34 10,6 C 10,6 C 8,3 C 84 % 0 lf 1006,7 hPa 0,0 l/m 0 min 0 min 14 W/m 16,7 km/h (3 Bft) 93,62 %
22.11.2016 08:36 10,6 C 10,6 C 8,3 C 84 % 0 lf 1006,6 hPa 0,0 l/m 0 min 0 min 16 W/m 16,7 km/h (3 Bft) 93,62 %
22.11.2016 08:38 10,6 C 10,6 C 8,3 C 84 % 0 lf 1006,7 hPa 0,0 l/m 0 min 0 min 17 W/m 16,7 km/h (3 Bft) 93,48 %
22.11.2016 08:40 10,6 C 10,6 C 8,3 C 84 % 0 lf 1006,8 hPa 0,0 l/m 0 min 0 min 18 W/m 25,1 km/h (4 Bft) 93,62 %
22.11.2016 08:42 10,6 C 10,6 C 8,3 C 84 % 0 lf 1006,8 hPa 0,0 l/m 0 min 0 min 19 W/m 25,1 km/h (4 Bft) 93,62 %
22.11.2016 08:44 10,6 C 10,6 C 8,3 C 84 % 0 lf 1006,8 hPa 0,0 l/m 0 min 0 min 19 W/m 16,7 km/h (3 Bft) 95,74 %
22.11.2016 08:46 10,6 C 10,6 C 8,3 C 84 % 0 lf 1006,8 hPa 0,0 l/m 0 min 0 min 19 W/m 12,6 km/h (3 Bft) 95,74 %
22.11.2016 08:48 10,6 C 10,6 C 8,3 C 84 % 0 lf 1006,8 hPa 0,0 l/m 0 min 0 min 19 W/m 14,6 km/h (3 Bft) 95,65 %
22.11.2016 08:50 10,6 C 10,6 C 8,3 C 84 % 0 lf 1007,0 hPa 0,0 l/m 0 min 0 min 19 W/m 14,6 km/h (3 Bft) 95,74 %
22.11.2016 08:52 10,6 C 10,6 C 8,3 C 84 % 0 lf 1006,9 hPa 0,0 l/m 0 min 0 min 18 W/m 14,6 km/h (3 Bft) 95,74 %
22.11.2016 08:54 10,6 C 10,6 C 8,3 C 84 % 0 lf 1007,0 hPa 0,0 l/m 0 min 0 min 19 W/m 16,7 km/h (3 Bft) 95,74 %
22.11.2016 08:56 10,6 C 10,6 C 8,3 C 84 % 0 lf 1007,0 hPa 0,0 l/m 0 min 0 min 19 W/m 12,6 km/h (3 Bft) 91,49 %
22.11.2016 08:58 10,6 C 10,6 C 8,3 C 84 % 0 lf 1007,0 hPa 0,0 l/m 0 min 0 min 20 W/m 12,6 km/h (3 Bft) 93,62 %
22.11.2016 09:00 10,5 C 10,6 C 8,3 C 84 % 0 lf 1007,0 hPa 0,0 l/m 0 min 0 min 21 W/m 16,7 km/h (3 Bft) 91,49 %
22.11.2016 09:02 10,5 C 10,6 C 8,3 C 84 % 0 lf 1007,0 hPa 0,0 l/m 0 min 0 min 23 W/m 16,7 km/h (3 Bft) 95,65 %
22.11.2016 09:04 10,5 C 10,6 C 8,3 C 84 % 0 lf 1007,0 hPa 0,0 l/m 0 min 0 min 24 W/m 14,6 km/h (3 Bft) 95,74 %
22.11.2016 09:06 10,5 C 10,6 C 8,3 C 84 % 0 lf 1007,1 hPa 0,0 l/m 0 min 0 min 25 W/m 14,6 km/h (3 Bft) 95,74 %
22.11.2016 09:08 10,5 C 10,6 C 8,3 C 84 % 0 lf 1007,1 hPa 0,0 l/m 0 min 0 min 26 W/m 12,6 km/h (3 Bft) 97,87 %
22.11.2016 09:10 10,4 C 10,6 C 8,3 C 84 % 0 lf 1007,2 hPa 0,0 l/m 0 min 0 min 29 W/m 12,6 km/h (3 Bft) 89,36 %
22.11.2016 09:12 10,4 C 10,6 C 8,3 C 84 % 0 lf 1007,2 hPa 0,0 l/m 0 min 0 min 33 W/m 16,7 km/h (3 Bft) 100,00 %
22.11.2016 09:14 10,4 C 10,6 C 8,3 C 84 % 0 lf 1007,2 hPa 0,0 l/m 0 min 0 min 34 W/m 14,6 km/h (3 Bft) 97,87 %
22.11.2016 09:16 10,4 C 10,6 C 8,3 C 84 % 0 lf 1007,2 hPa 0,0 l/m 0 min 0 min 38 W/m 18,8 km/h (3 Bft) 97,87 %
22.11.2016 09:18 10,4 C 11,1 C 8,3 C 84 % 0 lf 1007,2 hPa 0,0 l/m 0 min 0 min 42 W/m 14,6 km/h (3 Bft) 97,87 %
22.11.2016 09:20 10,4 C 11,1 C 8,9 C 84 % 0 lf 1007,1 hPa 0,0 l/m 0 min 0 min 46 W/m 16,7 km/h (3 Bft) 100,00 %
22.11.2016 09:22 10,4 C 11,1 C 8,9 C 84 % 0 lf 1007,2 hPa 0,0 l/m 0 min 0 min 50 W/m 10,5 km/h (2 Bft) 93,62 %
22.11.2016 09:24 10,4 C 11,1 C 8,9 C 84 % 0 lf 1007,3 hPa 0,0 l/m 0 min 0 min 54 W/m 14,6 km/h (3 Bft) 97,83 %
22.11.2016 09:26 10,4 C 11,1 C 8,9 C 84 % 0 lf 1007,3 hPa 0,0 l/m 0 min 0 min 57 W/m 18,8 km/h (3 Bft) 100,00 %
22.11.2016 09:28 10,5 C 11,1 C 8,9 C 84 % 0 lf 1007,3 hPa 0,0 l/m 0 min 0 min 61 W/m 14,6 km/h (3 Bft) 100,00 %
22.11.2016 09:30 10,5 C 11,1 C 8,9 C 84 % 0 lf 1007,3 hPa 0,0 l/m 0 min 0 min 67 W/m 12,6 km/h (3 Bft) 100,00 %
22.11.2016 09:32 10,5 C 11,1 C 9,4 C 84 % 0 lf 1007,3 hPa 0,0 l/m 0 min 0 min 78 W/m 16,7 km/h (3 Bft) 97,87 %
22.11.2016 09:34 10,6 C 11,7 C 9,4 C 84 % 0 lf 1007,3 hPa 0,0 l/m 2 min 0 min 88 W/m 20,9 km/h (4 Bft) 100,00 %
22.11.2016 09:36 10,6 C 11,7 C 9,4 C 84 % 0 lf 1007,3 hPa 0,0 l/m 2 min 0 min 91 W/m 18,8 km/h (3 Bft) 97,83 %
22.11.2016 09:38 10,6 C 11,7 C 10,0 C 84 % 0 lf 1007,2 hPa 0,0 l/m 2 min 0 min 89 W/m 16,7 km/h (3 Bft) 100,00 %
22.11.2016 09:40 10,6 C 11,7 C 10,0 C 84 % 0 lf 1007,3 hPa 0,0 l/m 0 min 0 min 85 W/m 18,8 km/h (3 Bft) 97,87 %
22.11.2016 09:42 10,7 C 11,7 C 10,0 C 84 % 0 lf 1007,3 hPa 0,0 l/m 0 min 0 min 82 W/m 25,1 km/h (4 Bft) 95,74 %
22.11.2016 09:44 10,7 C 11,7 C 10,0 C 83 % 0 lf 1007,3 hPa 0,0 l/m 0 min 0 min 83 W/m 12,6 km/h (3 Bft) 93,62 %
22.11.2016 09:46 10,8 C 11,7 C 10,0 C 83 % 0 lf 1007,3 hPa 0,0 l/m 0 min 0 min 83 W/m 14,6 km/h (3 Bft) 100,00 %
22.11.2016 09:48 10,8 C 11,7 C 10,0 C 83 % 0 lf 1007,4 hPa 0,0 l/m 0 min 0 min 81 W/m 20,9 km/h (4 Bft) 100,00 %
22.11.2016 09:50 10,8 C 12,2 C 10,0 C 83 % 0 lf 1007,5 hPa 0,0 l/m 0 min 0 min 79 W/m 18,8 km/h (3 Bft) 97,87 %
22.11.2016 09:52 10,9 C 12,2 C 10,6 C 82 % 0 lf 1007,5 hPa 0,0 l/m 0 min 0 min 78 W/m 16,7 km/h (3 Bft) 95,74 %
22.11.2016 09:54 10,9 C 12,2 C 10,6 C 82 % 0 lf 1007,5 hPa 0,0 l/m 0 min 0 min 78 W/m 20,9 km/h (4 Bft) 97,87 %
22.11.2016 09:56 11,0 C 12,2 C 10,6 C 82 % 0 lf 1007,5 hPa 0,0 l/m 0 min 0 min 80 W/m 18,8 km/h (3 Bft) 97,87 %
22.11.2016 09:58 11,1 C 12,2 C 10,6 C 81 % 0 lf 1007,6 hPa 0,0 l/m 0 min 0 min 84 W/m 14,6 km/h (3 Bft) 97,87 %
22.11.2016 10:00 11,1 C 12,2 C 10,6 C 81 % 0 lf 1007,5 hPa 0,0 l/m 0 min 0 min 86 W/m 16,7 km/h (3 Bft) 93,48 %
22.11.2016 10:02 11,2 C 12,2 C 10,6 C 81 % 0 lf 1007,6 hPa 0,0 l/m 0 min 0 min 84 W/m 23,0 km/h (4 Bft) 95,74 %
22.11.2016 10:04 11,2 C 12,2 C 10,6 C 81 % 0 lf 1007,8 hPa 0,0 l/m 0 min 0 min 84 W/m 23,0 km/h (4 Bft) 93,62 %
22.11.2016 10:06 11,3 C 12,2 C 10,6 C 80 % 0 lf 1008,0 hPa 0,0 l/m 0 min 0 min 87 W/m 14,6 km/h (3 Bft) 93,62 %
22.11.2016 10:08 11,3 C 12,8 C 10,6 C 80 % 0 lf 1008,0 hPa 0,0 l/m 0 min 0 min 94 W/m 14,6 km/h (3 Bft) 93,62 %
22.11.2016 10:10 11,4 C 12,8 C 11,1 C 80 % 0 lf 1008,1 hPa 0,0 l/m 0 min 0 min 99 W/m 10,5 km/h (2 Bft) 93,48 %
22.11.2016 10:12 11,4 C 12,8 C 11,1 C 80 % 0 lf 1008,1 hPa 0,0 l/m 0 min 0 min 103 W/m 16,7 km/h (3 Bft) 95,74 %
22.11.2016 10:14 11,4 C 12,8 C 11,1 C 79 % 0 lf 1008,0 hPa 0,0 l/m 0 min 0 min 108 W/m 16,7 km/h (3 Bft) 93,62 %
22.11.2016 10:16 11,5 C 12,8 C 11,1 C 79 % 0 lf 1008,0 hPa 0,0 l/m 0 min 0 min 104 W/m 23,0 km/h (4 Bft) 95,74 %
22.11.2016 10:18 11,6 C 12,8 C 11,1 C 79 % 0 lf 1008,0 hPa 0,0 l/m 0 min 0 min 100 W/m 20,9 km/h (4 Bft) 95,74 %
22.11.2016 10:20 11,6 C 12,8 C 11,1 C 79 % 0 lf 1008,0 hPa 0,0 l/m 0 min 0 min 97 W/m 6,3 km/h (2 Bft) 93,62 %
22.11.2016 10:22 11,7 C 12,8 C 11,1 C 79 % 0 lf 1008,0 hPa 0,0 l/m 0 min 0 min 95 W/m 33,5 km/h (5 Bft) 89,13 %
22.11.2016 10:24 11,7 C 12,8 C 11,1 C 79 % 0 lf 1008,1 hPa 0,0 l/m 0 min 0 min 91 W/m 23,0 km/h (4 Bft) 93,62 %
22.11.2016 10:26 11,7 C 12,8 C 11,1 C 78 % 0 lf 1008,1 hPa 0,0 l/m 0 min 0 min 86 W/m 14,6 km/h (3 Bft) 93,62 %
22.11.2016 10:28 11,8 C 12,8 C 11,1 C 78 % 0 lf 1008,1 hPa 0,0 l/m 0 min 0 min 87 W/m 23,0 km/h (4 Bft) 93,62 %
22.11.2016 10:30 11,8 C 12,8 C 11,1 C 78 % 0 lf 1008,2 hPa 0,0 l/m 0 min 0 min 85 W/m 18,8 km/h (3 Bft) 95,74 %
22.11.2016 10:32 11,8 C 12,8 C 11,1 C 78 % 0 lf 1008,3 hPa 0,0 l/m 0 min 0 min 82 W/m 25,1 km/h (4 Bft) 97,87 %
22.11.2016 10:34 11,8 C 12,8 C 11,1 C 78 % 0 lf 1008,4 hPa 0,0 l/m 0 min 0 min 78 W/m 20,9 km/h (4 Bft) 97,83 %
22.11.2016 10:36 11,9 C 12,2 C 11,1 C 78 % 0 lf 1008,5 hPa 0,0 l/m 0 min 0 min 76 W/m 14,6 km/h (3 Bft) 95,74 %
22.11.2016 10:38 11,9 C 12,2 C 11,1 C 78 % 0 lf 1008,5 hPa 0,0 l/m 0 min 0 min 75 W/m 18,8 km/h (3 Bft) 93,62 %
22.11.2016 10:40 11,9 C 12,2 C 11,1 C 78 % 0 lf 1008,6 hPa 0,0 l/m 0 min 0 min 73 W/m 12,6 km/h (3 Bft) 97,87 %
22.11.2016 10:42 11,9 C 12,2 C 10,6 C 78 % 0 lf 1008,7 hPa 0,0 l/m 0 min 0 min 73 W/m 25,1 km/h (4 Bft) 95,74 %
22.11.2016 10:44 11,9 C 12,2 C 10,6 C 78 % 0 lf 1008,7 hPa 0,0 l/m 0 min 0 min 74 W/m 16,7 km/h (3 Bft) 95,74 %
22.11.2016 10:46 11,9 C 12,2 C 10,6 C 78 % 0 lf 1008,7 hPa 0,0 l/m 0 min 0 min 73 W/m 31,4 km/h (5 Bft) 93,48 %
22.11.2016 10:48 11,9 C 12,2 C 10,6 C 78 % 0 lf 1008,6 hPa 0,0 l/m 0 min 0 min 69 W/m 18,8 km/h (3 Bft) 97,87 %
22.11.2016 10:50 11,9 C 12,2 C 10,6 C 78 % 0 lf 1008,7 hPa 0,0 l/m 0 min 0 min 69 W/m 16,7 km/h (3 Bft) 97,87 %
22.11.2016 10:52 11,9 C 12,2 C 10,6 C 78 % 0 lf 1008,7 hPa 0,0 l/m 0 min 0 min 73 W/m 18,8 km/h (3 Bft) 100,00 %
22.11.2016 10:54 11,9 C 12,2 C 10,6 C 78 % 0 lf 1008,7 hPa 0,0 l/m 0 min 0 min 79 W/m 16,7 km/h (3 Bft) 95,74 %
22.11.2016 10:56 11,9 C 12,2 C 11,1 C 78 % 0 lf 1008,7 hPa 0,0 l/m 0 min 0 min 81 W/m 14,6 km/h (3 Bft) 93,62 %
22.11.2016 10:58 11,9 C 12,8 C 11,1 C 78 % 0 lf 1008,8 hPa 0,0 l/m 0 min 0 min 81 W/m 18,8 km/h (3 Bft) 93,48 %
22.11.2016 11:00 11,9 C 12,2 C 11,1 C 78 % 0 lf 1008,8 hPa 0,0 l/m 0 min 0 min 81 W/m 20,9 km/h (4 Bft) 100,00 %
22.11.2016 11:02 11,9 C 12,8 C 11,1 C 78 % 0 lf 1008,8 hPa 0,0 l/m 0 min 0 min 81 W/m 20,9 km/h (4 Bft) 97,87 %
22.11.2016 11:04 11,9 C 12,8 C 11,1 C 78 % 0 lf 1008,8 hPa 0,0 l/m 0 min 0 min 80 W/m 18,8 km/h (3 Bft) 100,00 %
22.11.2016 11:06 12,0 C 12,8 C 11,1 C 78 % 0 lf 1008,8 hPa 0,0 l/m 0 min 0 min 76 W/m 14,6 km/h (3 Bft) 100,00 %
22.11.2016 11:08 12,0 C 12,2 C 11,1 C 78 % 0 lf 1008,9 hPa 0,0 l/m 0 min 0 min 71 W/m 23,0 km/h (4 Bft) 97,83 %
22.11.2016 11:10 12,0 C 12,8 C 11,1 C 78 % 0 lf 1008,9 hPa 0,0 l/m 0 min 0 min 70 W/m 16,7 km/h (3 Bft) 100,00 %
22.11.2016 11:12 12,0 C 12,2 C 10,6 C 78 % 0 lf 1008,9 hPa 0,0 l/m 0 min 0 min 70 W/m 12,6 km/h (3 Bft) 100,00 %
22.11.2016 11:14 12,0 C 12,2 C 10,6 C 78 % 0 lf 1008,9 hPa 0,0 l/m 0 min 0 min 66 W/m 18,8 km/h (3 Bft) 97,87 %
22.11.2016 11:16 12,0 C 12,2 C 10,6 C 78 % 0 lf 1009,0 hPa 0,0 l/m 0 min 0 min 63 W/m 12,6 km/h (3 Bft) 95,74 %
22.11.2016 11:18 12,0 C 12,2 C 10,6 C 78 % 0 lf 1009,0 hPa 0,0 l/m 0 min 0 min 62 W/m 23,0 km/h (4 Bft) 95,74 %
22.11.2016 11:20 12,0 C 12,2 C 10,6 C 78 % 0 lf 1009,1 hPa 0,0 l/m 0 min 0 min 62 W/m 14,6 km/h (3 Bft) 97,83 %
22.11.2016 11:22 12,0 C 12,2 C 10,6 C 78 % 0 lf 1009,1 hPa 0,0 l/m 0 min 0 min 63 W/m 14,6 km/h (3 Bft) 97,87 %
22.11.2016 11:24 12,0 C 12,2 C 10,6 C 78 % 0 lf 1009,1 hPa 0,0 l/m 0 min 0 min 65 W/m 14,6 km/h (3 Bft) 95,74 %
22.11.2016 11:26 12,0 C 12,2 C 10,6 C 78 % 0 lf 1009,0 hPa 0,0 l/m 0 min 0 min 69 W/m 20,9 km/h (4 Bft) 97,87 %
22.11.2016 11:28 12,0 C 12,2 C 11,1 C 78 % 0 lf 1009,0 hPa 0,0 l/m 0 min 0 min 77 W/m 16,7 km/h (3 Bft) 100,00 %
22.11.2016 11:30 12,0 C 12,8 C 11,1 C 78 % 0 lf 1009,0 hPa 0,0 l/m 0 min 0 min 83 W/m 14,6 km/h (3 Bft) 95,74 %
22.11.2016 11:32 12,0 C 12,8 C 11,1 C 78 % 0 lf 1009,0 hPa 0,0 l/m 0 min 0 min 88 W/m 14,6 km/h (3 Bft) 95,65 %
22.11.2016 11:34 12,0 C 12,8 C 11,1 C 78 % 0 lf 1009,0 hPa 0,0 l/m 0 min 0 min 95 W/m 18,8 km/h (3 Bft) 95,74 %
22.11.2016 11:36 12,0 C 12,8 C 11,1 C 78 % 0 lf 1008,9 hPa 0,0 l/m 0 min 0 min 99 W/m 18,8 km/h (3 Bft) 97,87 %
22.11.2016 11:38 12,0 C 12,8 C 11,1 C 78 % 0 lf 1009,0 hPa 0,0 l/m 0 min 0 min 105 W/m 12,6 km/h (3 Bft) 97,87 %
22.11.2016 11:40 12,0 C 12,8 C 11,1 C 78 % 0 lf 1009,0 hPa 0,0 l/m 0 min 0 min 106 W/m 12,6 km/h (3 Bft) 95,74 %
22.11.2016 11:42 12,1 C 12,8 C 11,7 C 78 % 0 lf 1009,0 hPa 0,0 l/m 0 min 0 min 104 W/m 18,8 km/h (3 Bft) 93,62 %
22.11.2016 11:44 12,1 C 12,8 C 11,7 C 77 % 0 lf 1009,0 hPa 0,0 l/m 0 min 0 min 101 W/m 14,6 km/h (3 Bft) 95,65 %
22.11.2016 11:46 12,1 C 12,8 C 11,7 C 77 % 0 lf 1009,0 hPa 0,0 l/m 0 min 0 min 98 W/m 25,1 km/h (4 Bft) 93,62 %
22.11.2016 11:48 12,1 C 12,8 C 11,7 C 77 % 0 lf 1009,0 hPa 0,0 l/m 0 min 0 min 96 W/m 16,7 km/h (3 Bft) 91,49 %
22.11.2016 11:50 12,2 C 12,8 C 11,7 C 77 % 0 lf 1009,0 hPa 0,0 l/m 0 min 0 min 93 W/m 16,7 km/h (3 Bft) 95,74 %
22.11.2016 11:52 12,2 C 12,8 C 11,7 C 77 % 0 lf 1009,1 hPa 0,0 l/m 0 min 0 min 91 W/m 23,0 km/h (4 Bft) 95,74 %
22.11.2016 11:54 12,2 C 12,8 C 11,7 C 77 % 0 lf 1009,1 hPa 0,0 l/m 0 min 0 min 92 W/m 20,9 km/h (4 Bft) 93,62 %
22.11.2016 11:56 12,2 C 12,8 C 11,7 C 77 % 0 lf 1009,1 hPa 0,0 l/m 0 min 0 min 96 W/m 27,2 km/h (4 Bft) 95,65 %
22.11.2016 11:58 12,2 C 12,8 C 11,7 C 77 % 0 lf 1009,1 hPa 0,0 l/m 0 min 0 min 100 W/m 16,7 km/h (3 Bft) 95,74 %
22.11.2016 12:00 12,2 C 12,8 C 11,7 C 77 % 0 lf 1009,1 hPa 0,0 l/m 0 min 0 min 101 W/m 18,8 km/h (3 Bft) 89,36 %
22.11.2016 12:02 12,3 C 12,8 C 11,7 C 77 % 0 lf 1009,1 hPa 0,0 l/m 0 min 0 min 104 W/m 18,8 km/h (3 Bft) 89,36 %
22.11.2016 12:06 12,3 C 13,3 C 11,7 C 76 % 0 lf 1009,2 hPa 0,0 l/m 0 min 0 min 99 W/m 23,0 km/h (4 Bft) 90,91 %
22.11.2016 12:08 12,3 C 13,3 C 11,7 C 76 % 0 lf 1009,2 hPa 0,0 l/m 0 min 0 min 97 W/m 14,6 km/h (3 Bft) 95,74 %
22.11.2016 12:10 12,3 C 13,3 C 11,7 C 76 % 0 lf 1009,3 hPa 0,0 l/m 0 min 0 min 93 W/m 18,8 km/h (3 Bft) 95,65 %
22.11.2016 12:12 12,4 C 13,3 C 11,7 C 76 % 0 lf 1009,3 hPa 0,0 l/m 0 min 0 min 89 W/m 27,2 km/h (4 Bft) 95,74 %
22.11.2016 12:14 12,4 C 12,8 C 11,7 C 76 % 0 lf 1009,3 hPa 0,0 l/m 0 min 0 min 88 W/m 18,8 km/h (3 Bft) 93,62 %
22.11.2016 12:16 12,4 C 12,8 C 11,7 C 76 % 0 lf 1009,3 hPa 0,0 l/m 0 min 0 min 91 W/m 29,3 km/h (5 Bft) 92,68 %
22.11.2016 12:18 12,4 C 13,3 C 11,7 C 76 % 0 lf 1009,3 hPa 0,0 l/m 0 min 0 min 96 W/m 25,1 km/h (4 Bft) 95,74 %
22.11.2016 12:20 12,4 C 13,3 C 11,7 C 76 % 0 lf 1009,3 hPa 0,0 l/m 0 min 0 min 97 W/m 23,0 km/h (4 Bft) 95,74 %
22.11.2016 12:22 12,4 C 13,3 C 11,7 C 76 % 0 lf 1009,2 hPa 0,0 l/m 0 min 0 min 98 W/m 18,8 km/h (3 Bft) 95,65 %
22.11.2016 12:24 12,4 C 13,3 C 11,7 C 76 % 0 lf 1009,3 hPa 0,0 l/m 0 min 0 min 101 W/m 16,7 km/h (3 Bft) 93,62 %
22.11.2016 12:26 12,4 C 13,3 C 11,7 C 76 % 0 lf 1009,3 hPa 0,0 l/m 0 min 0 min 103 W/m 20,9 km/h (4 Bft) 93,62 %
22.11.2016 12:28 12,5 C 13,3 C 11,7 C 76 % 0 lf 1009,3 hPa 0,0 l/m 0 min 0 min 97 W/m 14,6 km/h (3 Bft) 91,49 %
22.11.2016 12:30 12,5 C 13,3 C 11,7 C 76 % 0 lf 1009,2 hPa 0,0 l/m 0 min 0 min 91 W/m 16,7 km/h (3 Bft) 93,62 %
22.11.2016 12:32 12,5 C 13,3 C 11,7 C 76 % 0 lf 1009,3 hPa 0,0 l/m 0 min 0 min 90 W/m 18,8 km/h (3 Bft) 93,62 %
22.11.2016 12:34 12,5 C 12,8 C 11,7 C 76 % 0 lf 1009,3 hPa 0,0 l/m 0 min 0 min 92 W/m 31,4 km/h (5 Bft) 97,83 %
22.11.2016 12:36 12,5 C 13,3 C 11,7 C 76 % 0 lf 1009,2 hPa 0,0 l/m 0 min 0 min 94 W/m 16,7 km/h (3 Bft) 95,74 %
22.11.2016 12:38 12,5 C 13,3 C 11,7 C 76 % 0 lf 1009,3 hPa 0,0 l/m 0 min 0 min 96 W/m 18,8 km/h (3 Bft) 97,87 %
22.11.2016 12:40 12,5 C 13,3 C 11,7 C 76 % 0 lf 1009,3 hPa 0,0 l/m 0 min 0 min 100 W/m 14,6 km/h (3 Bft) 95,74 %
22.11.2016 12:42 12,6 C 13,3 C 11,7 C 76 % 0 lf 1009,3 hPa 0,0 l/m 0 min 0 min 103 W/m 14,6 km/h (3 Bft) 97,87 %
22.11.2016 12:44 12,6 C 13,3 C 11,7 C 76 % 0 lf 1009,2 hPa 0,0 l/m 0 min 0 min 99 W/m 12,6 km/h (3 Bft) 97,87 %
22.11.2016 12:46 12,6 C 13,3 C 11,7 C 76 % 0 lf 1009,2 hPa 0,0 l/m 0 min 0 min 93 W/m 14,6 km/h (3 Bft) 97,83 %
22.11.2016 12:48 12,6 C 13,3 C 11,7 C 76 % 0 lf 1009,2 hPa 0,0 l/m 0 min 0 min 90 W/m 16,7 km/h (3 Bft) 100,00 %
22.11.2016 12:50 12,6 C 13,3 C 11,7 C 76 % 0 lf 1009,2 hPa 0,0 l/m 0 min 0 min 98 W/m 12,6 km/h (3 Bft) 95,74 %
22.11.2016 12:52 12,6 C 13,3 C 11,7 C 76 % 0 lf 1009,2 hPa 0,0 l/m 0 min 0 min 104 W/m 18,8 km/h (3 Bft) 97,87 %
22.11.2016 12:54 12,6 C 13,3 C 11,7 C 76 % 0 lf 1009,2 hPa 0,0 l/m 0 min 0 min 104 W/m 23,0 km/h (4 Bft) 97,87 %
22.11.2016 12:56 12,6 C 13,3 C 11,7 C 76 % 0 lf 1009,2 hPa 0,0 l/m 0 min 0 min 102 W/m 12,6 km/h (3 Bft) 89,36 %
22.11.2016 12:58 12,6 C 13,3 C 11,7 C 76 % 0 lf 1009,3 hPa 0,0 l/m 0 min 0 min 98 W/m 12,6 km/h (3 Bft) 95,65 %
22.11.2016 13:00 12,6 C 13,3 C 11,7 C 76 % 0 lf 1009,3 hPa 0,0 l/m 0 min 0 min 90 W/m 20,9 km/h (4 Bft) 97,87 %
22.11.2016 13:02 12,6 C 12,8 C 11,7 C 76 % 0 lf 1009,3 hPa 0,0 l/m 0 min 0 min 83 W/m 20,9 km/h (4 Bft) 97,87 %
22.11.2016 13:04 12,6 C 13,3 C 11,7 C 76 % 0 lf 1009,2 hPa 0,0 l/m 0 min 0 min 79 W/m 14,6 km/h (3 Bft) 95,74 %
22.11.2016 13:06 12,6 C 12,8 C 11,7 C 76 % 0 lf 1009,3 hPa 0,0 l/m 0 min 0 min 70 W/m 25,1 km/h (4 Bft) 97,87 %
22.11.2016 13:08 12,6 C 12,8 C 11,7 C 76 % 0 lf 1009,3 hPa 0,0 l/m 0 min 0 min 64 W/m 23,0 km/h (4 Bft) 95,74 %
22.11.2016 13:10 12,6 C 12,8 C 11,7 C 76 % 0 lf 1009,3 hPa 0,0 l/m 0 min 0 min 64 W/m 12,6 km/h (3 Bft) 97,83 %
22.11.2016 13:12 12,6 C 12,8 C 11,7 C 76 % 0 lf 1009,4 hPa 0,0 l/m 0 min 0 min 71 W/m 14,6 km/h (3 Bft) 97,87 %
22.11.2016 13:14 12,6 C 13,3 C 11,7 C 76 % 0 lf 1009,3 hPa 0,0 l/m 0 min 0 min 81 W/m 20,9 km/h (4 Bft) 93,62 %
22.11.2016 13:16 12,6 C 13,3 C 11,7 C 76 % 0 lf 1009,4 hPa 0,0 l/m 0 min 0 min 91 W/m 20,9 km/h (4 Bft) 97,87 %
22.11.2016 13:18 12,6 C 13,3 C 11,7 C 76 % 0 lf 1009,2 hPa 0,0 l/m 0 min 0 min 99 W/m 16,7 km/h (3 Bft) 97,87 %
22.11.2016 13:20 12,6 C 13,3 C 11,7 C 76 % 0 lf 1009,3 hPa 0,0 l/m 0 min 0 min 100 W/m 18,8 km/h (3 Bft) 97,87 %
22.11.2016 13:22 12,6 C 13,3 C 11,7 C 76 % 0 lf 1009,2 hPa 0,0 l/m 0 min 0 min 99 W/m 18,8 km/h (3 Bft) 95,65 %
22.11.2016 13:24 12,6 C 13,3 C 11,7 C 76 % 0 lf 1009,1 hPa 0,0 l/m 0 min 0 min 102 W/m 18,8 km/h (3 Bft) 93,62 %
22.11.2016 13:26 12,6 C 13,3 C 11,7 C 76 % 0 lf 1009,1 hPa 0,0 l/m 0 min 0 min 98 W/m 18,8 km/h (3 Bft) 93,62 %
22.11.2016 13:28 12,7 C 13,3 C 11,7 C 76 % 0 lf 1009,1 hPa 0,0 l/m 0 min 0 min 95 W/m 16,7 km/h (3 Bft) 97,87 %
22.11.2016 13:30 12,6 C 13,3 C 11,7 C 76 % 0 lf 1009,1 hPa 0,0 l/m 0 min 0 min 91 W/m 16,7 km/h (3 Bft) 97,87 %
22.11.2016 13:32 12,7 C 13,3 C 11,7 C 76 % 0 lf 1009,2 hPa 0,0 l/m 0 min 0 min 86 W/m 14,6 km/h (3 Bft) 93,48 %
22.11.2016 13:34 12,7 C 13,3 C 11,7 C 76 % 0 lf 1009,1 hPa 0,0 l/m 0 min 0 min 88 W/m 14,6 km/h (3 Bft) 97,87 %
22.11.2016 13:36 12,7 C 13,3 C 11,7 C 76 % 0 lf 1009,2 hPa 0,0 l/m 0 min 0 min 90 W/m 10,5 km/h (2 Bft) 97,87 %
22.11.2016 13:38 12,7 C 13,3 C 11,7 C 76 % 0 lf 1009,2 hPa 0,0 l/m 0 min 0 min 95 W/m 12,6 km/h (3 Bft) 97,87 %
22.11.2016 13:40 12,7 C 13,3 C 11,7 C 76 % 0 lf 1009,2 hPa 0,0 l/m 0 min 0 min 106 W/m 8,4 km/h (2 Bft) 95,74 %
22.11.2016 13:42 12,7 C 13,9 C 12,2 C 76 % 0 lf 1009,2 hPa 0,0 l/m 0 min 0 min 126 W/m 12,6 km/h (3 Bft) 97,87 %
22.11.2016 13:44 12,7 C 13,9 C 12,2 C 76 % 0 lf 1009,1 hPa 0,0 l/m 2 min 0 min 143 W/m 12,6 km/h (3 Bft) 97,87 %
22.11.2016 13:46 12,7 C 13,9 C 12,2 C 76 % 0 lf 1009,1 hPa 0,0 l/m 2 min 0 min 143 W/m 18,8 km/h (3 Bft) 95,65 %
22.11.2016 13:48 12,7 C 13,9 C 12,2 C 76 % 0 lf 1009,2 hPa 0,0 l/m 0 min 0 min 129 W/m 12,6 km/h (3 Bft) 97,87 %
22.11.2016 13:50 12,7 C 13,3 C 12,2 C 76 % 0 lf 1009,2 hPa 0,0 l/m 0 min 0 min 117 W/m 12,6 km/h (3 Bft) 95,74 %
22.11.2016 13:52 12,7 C 13,9 C 12,2 C 76 % 0 lf 1009,3 hPa 0,0 l/m 0 min 0 min 122 W/m 8,4 km/h (2 Bft) 97,87 %
22.11.2016 13:54 12,7 C 13,9 C 12,2 C 76 % 0 lf 1009,1 hPa 0,0 l/m 0 min 0 min 117 W/m 12,6 km/h (3 Bft) 95,74 %
22.11.2016 13:56 12,8 C 13,9 C 12,2 C 76 % 0 lf 1009,0 hPa 0,0 l/m 0 min 0 min 118 W/m 16,7 km/h (3 Bft) 95,65 %
22.11.2016 13:58 12,8 C 13,9 C 12,2 C 76 % 0 lf 1009,0 hPa 0,0 l/m 0 min 0 min 122 W/m 10,5 km/h (2 Bft) 97,87 %
22.11.2016 14:00 12,8 C 14,4 C 12,2 C 76 % 0 lf 1009,0 hPa 0,0 l/m 2 min 0 min 142 W/m 12,6 km/h (3 Bft) 97,87 %
22.11.2016 14:02 12,8 C 15,0 C 12,2 C 76 % 0 lf 1008,9 hPa 0,0 l/m 2 min 0 min 195 W/m 16,7 km/h (3 Bft) 95,74 %
22.11.2016 14:04 12,8 C 16,1 C 12,8 C 76 % 0 lf 1008,9 hPa 0,0 l/m 2 min 0 min 240 W/m 14,6 km/h (3 Bft) 95,74 %
22.11.2016 14:06 12,9 C 17,2 C 12,8 C 77 % 0 lf 1008,9 hPa 0,0 l/m 2 min 0 min 274 W/m 12,6 km/h (3 Bft) 93,62 %
22.11.2016 14:08 12,9 C 18,9 C 12,8 C 77 % 0 lf 1008,8 hPa 0,0 l/m 2 min 0 min 258 W/m 6,3 km/h (2 Bft) 97,83 %
22.11.2016 14:10 13,0 C 17,2 C 12,8 C 77 % 0 lf 1008,8 hPa 0,0 l/m 2 min 0 min 194 W/m 8,4 km/h (2 Bft) 95,74 %
22.11.2016 14:12 13,1 C 16,1 C 12,8 C 77 % 0 lf 1008,8 hPa 0,0 l/m 2 min 0 min 154 W/m 20,9 km/h (4 Bft) 95,74 %
22.11.2016 14:14 13,1 C 16,1 C 12,2 C 76 % 0 lf 1008,9 hPa 0,0 l/m 2 min 0 min 155 W/m 14,6 km/h (3 Bft) 97,87 %
22.11.2016 14:16 13,1 C 17,2 C 12,2 C 76 % 0 lf 1009,0 hPa 0,0 l/m 2 min 0 min 200 W/m 14,6 km/h (3 Bft) 93,62 %
22.11.2016 14:18 13,2 C 17,8 C 12,2 C 76 % 0 lf 1009,0 hPa 0,0 l/m 2 min 0 min 172 W/m 12,6 km/h (3 Bft) 95,74 %
22.11.2016 14:20 13,2 C 16,1 C 12,2 C 76 % 0 lf 1009,0 hPa 0,0 l/m 2 min 0 min 147 W/m 10,5 km/h (2 Bft) 93,48 %
22.11.2016 14:22 13,2 C 15,6 C 11,7 C 76 % 0 lf 1009,1 hPa 0,0 l/m 0 min 0 min 101 W/m 14,6 km/h (3 Bft) 93,62 %
22.11.2016 14:24 13,2 C 14,4 C 11,7 C 75 % 0 lf 1009,2 hPa 0,0 l/m 0 min 0 min 106 W/m 16,7 km/h (3 Bft) 95,74 %
22.11.2016 14:26 13,2 C 14,4 C 11,7 C 75 % 0 lf 1009,2 hPa 0,0 l/m 0 min 0 min 96 W/m 14,6 km/h (3 Bft) 95,74 %
22.11.2016 14:28 13,2 C 13,9 C 11,7 C 75 % 0 lf 1009,2 hPa 0,0 l/m 0 min 0 min 100 W/m 16,7 km/h (3 Bft) 93,62 %
22.11.2016 14:30 13,2 C 14,4 C 11,7 C 75 % 0 lf 1009,2 hPa 0,0 l/m 2 min 0 min 117 W/m 14,6 km/h (3 Bft) 95,74 %
22.11.2016 14:32 13,2 C 14,4 C 11,7 C 75 % 0 lf 1009,2 hPa 0,0 l/m 2 min 0 min 130 W/m 14,6 km/h (3 Bft) 95,65 %
22.11.2016 14:34 13,3 C 15,6 C 11,7 C 75 % 0 lf 1009,3 hPa 0,0 l/m 2 min 0 min 150 W/m 10,5 km/h (2 Bft) 95,74 %
22.11.2016 14:36 13,2 C 15,6 C 11,7 C 75 % 0 lf 1009,4 hPa 0,0 l/m 2 min 0 min 162 W/m 14,6 km/h (3 Bft) 93,62 %
22.11.2016 14:38 13,3 C 16,1 C 11,7 C 75 % 0 lf 1009,4 hPa 0,0 l/m 2 min 0 min 143 W/m 10,5 km/h (2 Bft) 95,74 %
22.11.2016 14:40 13,3 C 15,0 C 11,7 C 76 % 0 lf 1009,3 hPa 0,0 l/m 0 min 0 min 104 W/m 20,9 km/h (4 Bft) 95,74 %
22.11.2016 14:42 13,3 C 15,0 C 11,7 C 75 % 0 lf 1009,2 hPa 0,0 l/m 0 min 0 min 103 W/m 8,4 km/h (2 Bft) 95,74 %
22.11.2016 14:44 13,2 C 14,4 C 11,7 C 75 % 0 lf 1009,3 hPa 0,0 l/m 2 min 0 min 112 W/m 14,6 km/h (3 Bft) 97,83 %
22.11.2016 14:46 13,2 C 13,9 C 11,7 C 75 % 0 lf 1009,3 hPa 0,0 l/m 2 min 0 min 106 W/m 18,8 km/h (3 Bft) 97,87 %
22.11.2016 14:48 13,2 C 13,9 C 11,1 C 75 % 0 lf 1009,4 hPa 0,0 l/m 0 min 0 min 83 W/m 23,0 km/h (4 Bft) 97,87 %
22.11.2016 14:50 13,2 C 13,9 C 11,1 C 75 % 0 lf 1009,4 hPa 0,0 l/m 0 min 0 min 91 W/m 14,6 km/h (3 Bft) 95,74 %
22.11.2016 14:52 13,2 C 13,9 C 11,1 C 75 % 0 lf 1009,4 hPa 0,0 l/m 0 min 0 min 92 W/m 23,0 km/h (4 Bft) 91,49 %
22.11.2016 14:54 13,2 C 13,3 C 11,1 C 75 % 0 lf 1009,6 hPa 0,0 l/m 0 min 0 min 95 W/m 16,7 km/h (3 Bft) 97,87 %
22.11.2016 14:56 13,2 C 13,9 C 11,7 C 74 % 0 lf 1009,6 hPa 0,0 l/m 2 min 0 min 123 W/m 23,0 km/h (4 Bft) 97,83 %
22.11.2016 14:58 13,2 C 13,9 C 11,7 C 74 % 0 lf 1009,6 hPa 0,0 l/m 2 min 0 min 102 W/m 18,8 km/h (3 Bft) 95,74 %
22.11.2016 15:00 13,1 C 13,9 C 11,7 C 74 % 0 lf 1009,6 hPa 0,0 l/m 0 min 0 min 90 W/m 14,6 km/h (3 Bft) 97,87 %
22.11.2016 15:02 13,1 C 13,9 C 11,1 C 74 % 0 lf 1009,7 hPa 0,0 l/m 0 min 0 min 86 W/m 27,2 km/h (4 Bft) 95,74 %
22.11.2016 15:04 13,1 C 13,9 C 11,1 C 74 % 0 lf 1009,9 hPa 0,0 l/m 2 min 0 min 94 W/m 14,6 km/h (3 Bft) 95,74 %
22.11.2016 15:06 13,1 C 13,9 C 11,1 C 75 % 0 lf 1009,9 hPa 0,0 l/m 2 min 0 min 114 W/m 16,7 km/h (3 Bft) 91,30 %
22.11.2016 15:08 13,1 C 14,4 C 11,1 C 75 % 0 lf 1010,0 hPa 0,0 l/m 2 min 0 min 118 W/m 12,6 km/h (3 Bft) 93,62 %
22.11.2016 15:10 13,1 C 13,9 C 11,1 C 75 % 0 lf 1010,0 hPa 0,0 l/m 2 min 0 min 100 W/m 16,7 km/h (3 Bft) 95,74 %
22.11.2016 15:12 13,1 C 13,9 C 11,1 C 75 % 0 lf 1010,1 hPa 0,0 l/m 0 min 0 min 72 W/m 18,8 km/h (3 Bft) 96,23 %
22.11.2016 15:14 13,1 C 13,3 C 11,1 C 75 % 0 lf 1010,0 hPa 0,0 l/m 0 min 0 min 72 W/m 25,1 km/h (4 Bft) 91,49 %
22.11.2016 15:16 13,0 C 13,3 C 11,1 C 75 % 0 lf 1010,0 hPa 0,0 l/m 0 min 0 min 71 W/m 20,9 km/h (4 Bft) 92,68 %
22.11.2016 15:18 13,0 C 13,3 C 11,1 C 75 % 0 lf 1010,1 hPa 0,0 l/m 0 min 0 min 68 W/m 14,6 km/h (3 Bft) 97,83 %
22.11.2016 15:20 13,0 C 13,3 C 11,1 C 75 % 0 lf 1010,1 hPa 0,0 l/m 2 min 0 min 73 W/m 12,6 km/h (3 Bft) 97,87 %
22.11.2016 15:22 13,0 C 13,3 C 11,1 C 75 % 0 lf 1010,1 hPa 0,0 l/m 0 min 0 min 61 W/m 12,6 km/h (3 Bft) 97,87 %
22.11.2016 15:24 13,0 C 13,3 C 10,6 C 75 % 0 lf 1010,0 hPa 0,0 l/m 0 min 0 min 53 W/m 10,5 km/h (2 Bft) 97,87 %
22.11.2016 15:26 12,9 C 12,8 C 10,6 C 75 % 0 lf 1010,0 hPa 0,0 l/m 0 min 0 min 50 W/m 14,6 km/h (3 Bft) 93,62 %
22.11.2016 15:28 12,9 C 12,8 C 10,6 C 75 % 0 lf 1009,9 hPa 0,0 l/m 0 min 0 min 48 W/m 14,6 km/h (3 Bft) 95,74 %
22.11.2016 15:30 12,9 C 12,8 C 10,6 C 75 % 0 lf 1009,9 hPa 0,0 l/m 0 min 0 min 52 W/m 8,4 km/h (2 Bft) 93,48 %
22.11.2016 15:32 12,9 C 12,8 C 10,6 C 75 % 0 lf 1009,9 hPa 0,0 l/m 0 min 0 min 51 W/m 6,3 km/h (2 Bft) 91,49 %
22.11.2016 15:34 12,9 C 12,8 C 10,6 C 76 % 0 lf 1009,9 hPa 0,0 l/m 0 min 0 min 49 W/m 8,4 km/h (2 Bft) 93,62 %
22.11.2016 15:36 12,9 C 12,8 C 10,6 C 76 % 0 lf 1010,0 hPa 0,0 l/m 0 min 0 min 49 W/m 10,5 km/h (2 Bft) 95,74 %
22.11.2016 15:38 12,9 C 12,8 C 10,6 C 76 % 0 lf 1010,0 hPa 0,0 l/m 0 min 0 min 45 W/m 6,3 km/h (2 Bft) 95,74 %
22.11.2016 15:40 12,8 C 12,8 C 10,0 C 76 % 0 lf 1010,2 hPa 0,0 l/m 0 min 0 min 39 W/m 6,3 km/h (2 Bft) 93,62 %
22.11.2016 15:42 12,8 C 12,8 C 10,0 C 76 % 0 lf 1010,2 hPa 0,0 l/m 0 min 0 min 35 W/m 8,4 km/h (2 Bft) 93,48 %
22.11.2016 15:44 12,8 C 12,8 C 10,0 C 76 % 0 lf 1010,2 hPa 0,0 l/m 0 min 0 min 33 W/m 8,4 km/h (2 Bft) 93,62 %
22.11.2016 15:46 12,8 C 12,2 C 10,0 C 77 % 0 lf 1010,2 hPa 0,0 l/m 0 min 0 min 30 W/m 10,5 km/h (2 Bft) 93,62 %
22.11.2016 15:48 12,7 C 12,2 C 10,0 C 77 % 0 lf 1010,2 hPa 0,0 l/m 0 min 0 min 28 W/m 10,5 km/h (2 Bft) 95,74 %
22.11.2016 15:50 12,7 C 12,2 C 10,0 C 77 % 0 lf 1010,2 hPa 0,0 l/m 0 min 0 min 26 W/m 14,6 km/h (3 Bft) 93,62 %
22.11.2016 15:52 12,7 C 12,2 C 10,0 C 77 % 0 lf 1010,2 hPa 0,0 l/m 0 min 0 min 24 W/m 12,6 km/h (3 Bft) 97,87 %
22.11.2016 15:54 12,7 C 12,2 C 10,0 C 77 % 0 lf 1010,3 hPa 0,0 l/m 0 min 0 min 22 W/m 12,6 km/h (3 Bft) 93,48 %
22.11.2016 15:56 12,6 C 12,2 C 10,0 C 77 % 0 lf 1010,3 hPa 0,0 l/m 0 min 0 min 19 W/m 14,6 km/h (3 Bft) 95,74 %
22.11.2016 15:58 12,6 C 12,2 C 10,0 C 77 % 0 lf 1010,3 hPa 0,0 l/m 0 min 0 min 18 W/m 14,6 km/h (3 Bft) 93,62 %
22.11.2016 16:00 12,5 C 12,2 C 10,0 C 78 % 0 lf 1010,2 hPa 0,0 l/m 0 min 0 min 16 W/m 14,6 km/h (3 Bft) 93,62 %
22.11.2016 16:02 12,5 C 12,2 C 10,0 C 78 % 0 lf 1010,2 hPa 0,0 l/m 0 min 0 min 16 W/m 10,5 km/h (2 Bft) 94,34 %
22.11.2016 16:04 12,4 C 12,2 C 10,0 C 78 % 0 lf 1010,2 hPa 0,0 l/m 0 min 0 min 14 W/m 12,6 km/h (3 Bft) 93,48 %
22.11.2016 16:06 12,4 C 12,2 C 10,0 C 78 % 0 lf 1010,2 hPa 0,0 l/m 0 min 0 min 14 W/m 8,4 km/h (2 Bft) 95,74 %
22.11.2016 16:08 12,4 C 12,2 C 10,0 C 78 % 0 lf 1010,4 hPa 0,0 l/m 0 min 0 min 14 W/m 8,4 km/h (2 Bft) 95,74 %
22.11.2016 16:10 12,4 C 12,2 C 10,0 C 78 % 0 lf 1010,3 hPa 0,0 l/m 0 min 0 min 13 W/m 6,3 km/h (2 Bft) 95,74 %
22.11.2016 16:12 12,4 C 12,2 C 10,0 C 78 % 0 lf 1010,3 hPa 0,0 l/m 0 min 0 min 12 W/m 8,4 km/h (2 Bft) 93,62 %
22.11.2016 16:14 12,3 C 12,2 C 10,0 C 78 % 0 lf 1010,4 hPa 0,0 l/m 0 min 0 min 11 W/m 10,5 km/h (2 Bft) 97,87 %
22.11.2016 16:16 12,3 C 12,2 C 10,0 C 78 % 0 lf 1010,5 hPa 0,0 l/m 0 min 0 min 12 W/m 8,4 km/h (2 Bft) 97,50 %
22.11.2016 16:18 12,3 C 12,2 C 10,0 C 79 % 0 lf 1010,4 hPa 0,0 l/m 0 min 0 min 12 W/m 10,5 km/h (2 Bft) 91,49 %
22.11.2016 16:20 12,3 C 12,2 C 10,0 C 79 % 0 lf 1010,5 hPa 0,0 l/m 0 min 0 min 11 W/m 8,4 km/h (2 Bft) 95,74 %
22.11.2016 16:22 12,2 C 12,2 C 10,0 C 79 % 0 lf 1010,5 hPa 0,0 l/m 0 min 0 min 9 W/m 8,4 km/h (2 Bft) 91,49 %
22.11.2016 16:24 12,2 C 11,7 C 10,0 C 79 % 0 lf 1010,6 hPa 0,0 l/m 0 min 0 min 8 W/m 8,4 km/h (2 Bft) 95,74 %
22.11.2016 16:26 12,2 C 11,7 C 10,0 C 79 % 0 lf 1010,7 hPa 0,0 l/m 0 min 0 min 7 W/m 12,6 km/h (3 Bft) 95,74 %
22.11.2016 16:28 12,2 C 11,7 C 10,0 C 80 % 0 lf 1010,7 hPa 0,0 l/m 0 min 0 min 7 W/m 8,4 km/h (2 Bft) 95,65 %
22.11.2016 16:30 12,1 C 11,7 C 10,0 C 80 % 0 lf 1010,7 hPa 0,0 l/m 0 min 0 min 7 W/m 8,4 km/h (2 Bft) 93,62 %
22.11.2016 16:32 12,1 C 11,7 C 10,0 C 80 % 0 lf 1010,7 hPa 0,0 l/m 0 min 0 min 6 W/m 8,4 km/h (2 Bft) 95,74 %
22.11.2016 16:34 12,1 C 11,7 C 10,0 C 80 % 0 lf 1010,8 hPa 0,0 l/m 0 min 0 min 5 W/m 10,5 km/h (2 Bft) 97,87 %
22.11.2016 16:36 12,1 C 11,7 C 10,0 C 80 % 0 lf 1010,8 hPa 0,0 l/m 0 min 0 min 5 W/m 10,5 km/h (2 Bft) 100,00 %
22.11.2016 16:38 12,0 C 11,7 C 10,0 C 80 % 0 lf 1010,7 hPa 0,0 l/m 0 min 0 min 5 W/m 12,6 km/h (3 Bft) 95,74 %
22.11.2016 16:40 12,0 C 11,7 C 10,0 C 80 % 0 lf 1010,7 hPa 0,0 l/m 0 min 0 min 5 W/m 10,5 km/h (2 Bft) 95,65 %
22.11.2016 16:42 11,9 C 11,7 C 9,4 C 80 % 0 lf 1010,8 hPa 0,0 l/m 0 min 0 min 5 W/m 8,4 km/h (2 Bft) 95,74 %
22.11.2016 16:44 11,9 C 11,7 C 9,4 C 80 % 0 lf 1010,8 hPa 0,0 l/m 0 min 0 min 5 W/m 8,4 km/h (2 Bft) 100,00 %
22.11.2016 16:46 11,9 C 11,7 C 9,4 C 81 % 0 lf 1010,8 hPa 0,0 l/m 0 min 0 min 5 W/m 10,5 km/h (2 Bft) 100,00 %
22.11.2016 16:48 11,9 C 11,7 C 9,4 C 81 % 0 lf 1010,8 hPa 0,0 l/m 0 min 0 min 5 W/m 8,4 km/h (2 Bft) 97,87 %
22.11.2016 16:50 11,8 C 11,7 C 9,4 C 81 % 0 lf 1010,8 hPa 0,0 l/m 0 min 0 min 5 W/m 8,4 km/h (2 Bft) 100,00 %
22.11.2016 16:52 11,8 C 11,7 C 9,4 C 81 % 0 lf 1010,7 hPa 0,0 l/m 0 min 0 min 5 W/m 8,4 km/h (2 Bft) 97,83 %
22.11.2016 16:54 11,8 C 11,7 C 9,4 C 81 % 0 lf 1010,8 hPa 0,0 l/m 0 min 0 min 5 W/m 12,6 km/h (3 Bft) 95,74 %
22.11.2016 16:56 11,8 C 11,7 C 9,4 C 81 % 0 lf 1010,7 hPa 0,0 l/m 0 min 0 min 5 W/m 12,6 km/h (3 Bft) 100,00 %
22.11.2016 16:58 11,7 C 11,7 C 9,4 C 81 % 0 lf 1010,7 hPa 0,0 l/m 0 min 0 min 1 W/m 10,5 km/h (2 Bft) 100,00 %
22.11.2016 17:00 11,7 C 11,7 C 9,4 C 81 % 0 lf 1010,8 hPa 0,0 l/m 0 min 0 min 1 W/m 10,5 km/h (2 Bft) 95,74 %
22.11.2016 17:02 11,7 C 11,7 C 9,4 C 81 % 0 lf 1010,8 hPa 0,0 l/m 0 min 0 min 1 W/m 10,5 km/h (2 Bft) 95,74 %
22.11.2016 17:04 11,7 C 11,7 C 9,4 C 82 % 0 lf 1010,8 hPa 0,0 l/m 0 min 0 min 2 W/m 8,4 km/h (2 Bft) 97,83 %
22.11.2016 17:06 11,7 C 11,1 C 9,4 C 82 % 0 lf 1010,8 hPa 0,0 l/m 0 min 0 min 2 W/m 8,4 km/h (2 Bft) 97,87 %
22.11.2016 17:08 11,6 C 11,1 C 9,4 C 82 % 0 lf 1010,8 hPa 0,0 l/m 0 min 0 min 0 W/m 8,4 km/h (2 Bft) 91,49 %
22.11.2016 17:10 11,6 C 11,1 C 9,4 C 82 % 0 lf 1010,9 hPa 0,0 l/m 0 min 0 min 2 W/m 6,3 km/h (2 Bft) 95,74 %
22.11.2016 17:12 11,6 C 11,1 C 9,4 C 82 % 0 lf 1010,8 hPa 0,0 l/m 0 min 0 min 1 W/m 8,4 km/h (2 Bft) 95,74 %
22.11.2016 17:14 11,6 C 11,1 C 9,4 C 82 % 0 lf 1010,9 hPa 0,0 l/m 0 min 0 min 5 W/m 8,4 km/h (2 Bft) 100,00 %
22.11.2016 17:16 11,6 C 11,1 C 9,4 C 82 % 0 lf 1010,9 hPa 0,0 l/m 0 min 0 min 3 W/m 8,4 km/h (2 Bft) 97,83 %
22.11.2016 17:18 11,5 C 11,1 C 8,9 C 82 % 0 lf 1010,9 hPa 0,0 l/m 0 min 0 min 0 W/m 12,6 km/h (3 Bft) 95,74 %
22.11.2016 17:20 11,5 C 11,1 C 8,9 C 82 % 0 lf 1011,0 hPa 0,0 l/m 0 min 0 min 0 W/m 8,4 km/h (2 Bft) 100,00 %
22.11.2016 17:22 11,5 C 11,1 C 8,9 C 82 % 0 lf 1011,0 hPa 0,0 l/m 0 min 0 min 0 W/m 4,2 km/h (1 Bft) 93,62 %
22.11.2016 17:24 11,4 C 11,1 C 8,9 C 82 % 0 lf 1011,0 hPa 0,0 l/m 0 min 0 min 0 W/m 4,2 km/h (1 Bft) 97,87 %
22.11.2016 17:26 11,4 C 11,1 C 8,9 C 82 % 0 lf 1011,0 hPa 0,0 l/m 0 min 0 min 0 W/m 8,4 km/h (2 Bft) 95,74 %
22.11.2016 17:28 11,4 C 11,1 C 8,9 C 82 % 0 lf 1011,0 hPa 0,0 l/m 0 min 0 min 0 W/m 8,4 km/h (2 Bft) 95,65 %
22.11.2016 17:30 11,4 C 11,1 C 8,9 C 82 % 0 lf 1011,0 hPa 0,0 l/m 0 min 0 min 1 W/m 10,5 km/h (2 Bft) 95,74 %
22.11.2016 17:32 11,4 C 11,1 C 8,9 C 83 % 0 lf 1011,0 hPa 0,0 l/m 0 min 0 min 1 W/m 6,3 km/h (2 Bft) 95,74 %
22.11.2016 17:34 11,3 C 11,1 C 8,9 C 83 % 0 lf 1011,0 hPa 0,0 l/m 0 min 0 min 0 W/m 8,4 km/h (2 Bft) 93,62 %
22.11.2016 17:36 11,3 C 11,1 C 8,9 C 83 % 0 lf 1010,9 hPa 0,0 l/m 0 min 0 min 0 W/m 10,5 km/h (2 Bft) 95,74 %
22.11.2016 17:38 11,3 C 11,1 C 8,9 C 83 % 0 lf 1011,0 hPa 0,0 l/m 0 min 0 min 4 W/m 10,5 km/h (2 Bft) 97,87 %
22.11.2016 17:40 11,3 C 11,1 C 8,9 C 83 % 0 lf 1011,0 hPa 0,0 l/m 0 min 0 min 2 W/m 10,5 km/h (2 Bft) 95,65 %
22.11.2016 17:42 11,3 C 11,1 C 8,9 C 83 % 0 lf 1011,1 hPa 0,0 l/m 0 min 0 min 0 W/m 6,3 km/h (2 Bft) 97,87 %
22.11.2016 17:44 11,2 C 11,1 C 8,9 C 83 % 0 lf 1011,1 hPa 0,0 l/m 0 min 0 min 0 W/m 8,4 km/h (2 Bft) 97,87 %
22.11.2016 17:46 11,2 C 11,1 C 8,9 C 83 % 0 lf 1011,1 hPa 0,0 l/m 0 min 0 min 0 W/m 8,4 km/h (2 Bft) 97,87 %
22.11.2016 17:48 11,2 C 11,1 C 8,9 C 83 % 0 lf 1011,1 hPa 0,0 l/m 0 min 0 min 0 W/m 10,5 km/h (2 Bft) 95,74 %
22.11.2016 17:50 11,2 C 11,1 C 8,9 C 83 % 0 lf 1011,1 hPa 0,0 l/m 0 min 0 min 2 W/m 8,4 km/h (2 Bft) 97,83 %
22.11.2016 17:52 11,2 C 11,1 C 8,9 C 84 % 0 lf 1011,1 hPa 0,0 l/m 0 min 0 min 0 W/m 14,6 km/h (3 Bft) 93,62 %
22.11.2016 17:54 11,2 C 11,1 C 8,9 C 84 % 0 lf 1011,1 hPa 0,0 l/m 0 min 0 min 0 W/m 8,4 km/h (2 Bft) 97,87 %
22.11.2016 17:56 11,2 C 11,1 C 8,9 C 84 % 0 lf 1011,2 hPa 0,0 l/m 0 min 0 min 0 W/m 8,4 km/h (2 Bft) 97,87 %
22.11.2016 17:58 11,1 C 11,1 C 8,9 C 84 % 0 lf 1011,2 hPa 0,0 l/m 0 min 0 min 0 W/m 8,4 km/h (2 Bft) 97,87 %
22.11.2016 18:00 11,1 C 11,1 C 8,9 C 84 % 0 lf 1011,3 hPa 0,0 l/m 0 min 0 min 0 W/m 10,5 km/h (2 Bft) 97,87 %
22.11.2016 18:02 11,1 C 11,1 C 8,9 C 84 % 0 lf 1011,3 hPa 0,0 l/m 0 min 0 min 0 W/m 10,5 km/h (2 Bft) 96,36 %
22.11.2016 18:06 11,1 C 11,1 C 8,9 C 84 % 0 lf 1011,3 hPa 0,0 l/m 0 min 0 min 1 W/m 12,6 km/h (3 Bft) 95,79 %
22.11.2016 18:08 11,1 C 11,1 C 8,9 C 84 % 0 lf 1011,3 hPa 0,0 l/m 0 min 0 min 0 W/m 16,7 km/h (3 Bft) 97,87 %
22.11.2016 18:10 11,1 C 11,1 C 8,9 C 84 % 0 lf 1011,3 hPa 0,0 l/m 0 min 0 min 0 W/m 10,5 km/h (2 Bft) 97,87 %
22.11.2016 18:12 11,1 C 11,1 C 8,9 C 85 % 0 lf 1011,3 hPa 0,0 l/m 0 min 0 min 0 W/m 14,6 km/h (3 Bft) 97,83 %
22.11.2016 18:14 11,0 C 11,1 C 8,9 C 85 % 0 lf 1011,3 hPa 0,0 l/m 0 min 0 min 0 W/m 8,4 km/h (2 Bft) 97,87 %
22.11.2016 18:16 11,0 C 11,1 C 8,9 C 85 % 0 lf 1011,3 hPa 0,0 l/m 0 min 0 min 2 W/m 12,6 km/h (3 Bft) 91,49 %
22.11.2016 18:18 11,0 C 11,1 C 8,9 C 85 % 0 lf 1011,3 hPa 0,0 l/m 0 min 0 min 0 W/m 14,6 km/h (3 Bft) 95,74 %
22.11.2016 18:20 11,0 C 11,1 C 9,4 C 85 % 0 lf 1011,4 hPa 0,0 l/m 0 min 0 min 0 W/m 16,7 km/h (3 Bft) 91,49 %
22.11.2016 18:22 11,0 C 11,1 C 9,4 C 85 % 0 lf 1011,4 hPa 0,0 l/m 0 min 0 min 0 W/m 12,6 km/h (3 Bft) 93,62 %
22.11.2016 18:24 11,0 C 11,1 C 9,4 C 85 % 0 lf 1011,4 hPa 0,0 l/m 0 min 0 min 0 W/m 12,6 km/h (3 Bft) 93,48 %
22.11.2016 18:26 11,0 C 11,1 C 9,4 C 85 % 0 lf 1011,4 hPa 0,0 l/m 0 min 0 min 0 W/m 8,4 km/h (2 Bft) 93,62 %
22.11.2016 18:28 11,0 C 11,1 C 9,4 C 85 % 0 lf 1011,5 hPa 0,0 l/m 0 min 0 min 0 W/m 8,4 km/h (2 Bft) 95,74 %
22.11.2016 18:30 11,0 C 11,1 C 9,4 C 85 % 0 lf 1011,4 hPa 0,0 l/m 0 min 0 min 0 W/m 12,6 km/h (3 Bft) 95,74 %
22.11.2016 18:32 11,0 C 11,1 C 9,4 C 85 % 0 lf 1011,5 hPa 0,0 l/m 0 min 0 min 0 W/m 10,5 km/h (2 Bft) 93,62 %
22.11.2016 18:34 10,9 C 11,1 C 9,4 C 85 % 0 lf 1011,5 hPa 0,0 l/m 0 min 0 min 0 W/m 10,5 km/h (2 Bft) 93,62 %
22.11.2016 18:36 11,0 C 11,1 C 9,4 C 85 % 0 lf 1011,6 hPa 0,0 l/m 0 min 0 min 4 W/m 10,5 km/h (2 Bft) 95,65 %
22.11.2016 18:38 10,9 C 11,1 C 9,4 C 85 % 0 lf 1011,7 hPa 0,0 l/m 0 min 0 min 0 W/m 8,4 km/h (2 Bft) 95,74 %
22.11.2016 18:40 10,9 C 11,1 C 9,4 C 85 % 0 lf 1011,7 hPa 0,0 l/m 0 min 0 min 0 W/m 8,4 km/h (2 Bft) 95,74 %
22.11.2016 18:42 10,9 C 11,1 C 9,4 C 85 % 0 lf 1011,8 hPa 0,0 l/m 0 min 0 min 0 W/m 14,6 km/h (3 Bft) 95,74 %
22.11.2016 18:44 10,9 C 11,1 C 9,4 C 86 % 0 lf 1011,8 hPa 0,0 l/m 0 min 0 min 0 W/m 14,6 km/h (3 Bft) 95,74 %
22.11.2016 18:46 10,9 C 11,1 C 9,4 C 86 % 0 lf 1011,9 hPa 0,0 l/m 0 min 2 min 2 W/m 8,4 km/h (2 Bft) 97,83 %
22.11.2016 18:48 10,9 C 11,1 C 9,4 C 86 % 0 lf 1011,9 hPa 0,0 l/m 0 min 2 min 0 W/m 12,6 km/h (3 Bft) 97,87 %
22.11.2016 18:50 10,9 C 11,1 C 9,4 C 86 % 0 lf 1012,0 hPa 0,0 l/m 0 min 2 min 0 W/m 10,5 km/h (2 Bft) 95,74 %
22.11.2016 18:52 10,9 C 11,1 C 9,4 C 86 % 1 lf 1012,1 hPa 0,0 l/m 0 min 2 min 0 W/m 12,6 km/h (3 Bft) 93,62 %
22.11.2016 18:54 10,9 C 11,1 C 9,4 C 86 % 1 lf 1012,1 hPa 0,0 l/m 0 min 2 min 0 W/m 12,6 km/h (3 Bft) 95,74 %
22.11.2016 18:56 11,0 C 11,1 C 8,9 C 86 % 0 lf 1012,2 hPa 0,0 l/m 0 min 2 min 0 W/m 10,5 km/h (2 Bft) 95,74 %
22.11.2016 18:58 11,0 C 10,6 C 8,9 C 86 % 0 lf 1012,1 hPa 0,0 l/m 0 min 0 min 2 W/m 8,4 km/h (2 Bft) 93,48 %
22.11.2016 19:00 11,0 C 10,6 C 8,9 C 86 % 0 lf 1012,2 hPa 0,0 l/m 0 min 0 min 0 W/m 6,3 km/h (2 Bft) 93,62 %
22.11.2016 19:02 11,0 C 10,6 C 8,9 C 86 % 0 lf 1012,1 hPa 0,0 l/m 0 min 0 min 2 W/m 10,5 km/h (2 Bft) 91,49 %
22.11.2016 19:04 11,0 C 10,6 C 8,9 C 86 % 0 lf 1012,2 hPa 0,0 l/m 0 min 0 min 0 W/m 10,5 km/h (2 Bft) 93,62 %
22.11.2016 19:06 10,9 C 10,6 C 8,9 C 86 % 0 lf 1012,2 hPa 0,0 l/m 0 min 0 min 0 W/m 10,5 km/h (2 Bft) 95,74 %
22.11.2016 19:08 10,9 C 10,6 C 8,9 C 86 % 0 lf 1012,3 hPa 0,0 l/m 0 min 0 min 2 W/m 12,6 km/h (3 Bft) 95,74 %
22.11.2016 19:10 10,9 C 10,6 C 8,9 C 86 % 0 lf 1012,4 hPa 0,0 l/m 0 min 2 min 0 W/m 10,5 km/h (2 Bft) 97,83 %
22.11.2016 19:12 10,9 C 10,6 C 8,9 C 87 % 0 lf 1012,4 hPa 0,0 l/m 0 min 2 min 0 W/m 10,5 km/h (2 Bft) 87,23 %
22.11.2016 19:14 10,9 C 10,6 C 8,9 C 87 % 0 lf 1012,3 hPa 0,0 l/m 0 min 2 min 0 W/m 10,5 km/h (2 Bft) 97,87 %
22.11.2016 19:16 10,9 C 10,0 C 8,9 C 87 % 1 lf 1012,4 hPa 0,0 l/m 0 min 2 min 0 W/m 14,6 km/h (3 Bft) 95,74 %
22.11.2016 19:18 10,9 C 10,0 C 8,9 C 87 % 0 lf 1012,5 hPa 0,0 l/m 0 min 2 min 0 W/m 12,6 km/h (3 Bft) 97,87 %
22.11.2016 19:20 10,9 C 10,0 C 8,9 C 87 % 0 lf 1012,5 hPa 0,0 l/m 0 min 2 min 0 W/m 12,6 km/h (3 Bft) 97,83 %
22.11.2016 19:22 10,9 C 10,0 C 8,3 C 87 % 0 lf 1012,7 hPa 0,0 l/m 0 min 2 min 0 W/m 12,6 km/h (3 Bft) 95,74 %
22.11.2016 19:24 10,9 C 10,0 C 8,3 C 87 % 0 lf 1012,7 hPa 0,0 l/m 0 min 0 min 0 W/m 10,5 km/h (2 Bft) 95,74 %
22.11.2016 19:26 10,9 C 10,0 C 8,3 C 87 % 0 lf 1012,7 hPa 0,0 l/m 0 min 2 min 0 W/m 10,5 km/h (2 Bft) 95,74 %
22.11.2016 19:28 10,9 C 10,6 C 8,3 C 87 % 0 lf 1012,8 hPa 0,0 l/m 0 min 0 min 0 W/m 12,6 km/h (3 Bft) 91,49 %
22.11.2016 19:30 10,8 C 10,6 C 8,3 C 87 % 0 lf 1012,8 hPa 0,0 l/m 0 min 0 min 0 W/m 14,6 km/h (3 Bft) 95,74 %
22.11.2016 19:32 10,8 C 10,6 C 8,3 C 87 % 0 lf 1013,0 hPa 0,0 l/m 0 min 0 min 0 W/m 10,5 km/h (2 Bft) 93,62 %
22.11.2016 19:34 10,8 C 10,6 C 8,3 C 87 % 0 lf 1013,1 hPa 0,0 l/m 0 min 0 min 0 W/m 10,5 km/h (2 Bft) 97,83 %
22.11.2016 19:36 10,8 C 10,6 C 8,3 C 87 % 0 lf 1013,1 hPa 0,0 l/m 0 min 0 min 0 W/m 8,4 km/h (2 Bft) 95,74 %
22.11.2016 19:38 10,8 C 10,6 C 8,3 C 87 % 0 lf 1013,0 hPa 0,0 l/m 0 min 0 min 0 W/m 10,5 km/h (2 Bft) 93,62 %
22.11.2016 19:40 10,8 C 10,6 C 8,3 C 87 % 0 lf 1013,1 hPa 0,0 l/m 0 min 0 min 0 W/m 8,4 km/h (2 Bft) 93,62 %
22.11.2016 19:42 10,8 C 10,6 C 8,9 C 88 % 0 lf 1013,1 hPa 0,0 l/m 0 min 0 min 0 W/m 12,6 km/h (3 Bft) 95,74 %
22.11.2016 19:44 10,8 C 10,6 C 8,9 C 88 % 0 lf 1013,1 hPa 0,0 l/m 0 min 0 min 0 W/m 8,4 km/h (2 Bft) 91,49 %
22.11.2016 19:46 10,8 C 10,6 C 8,3 C 88 % 0 lf 1013,2 hPa 0,0 l/m 0 min 0 min 0 W/m 12,6 km/h (3 Bft) 91,30 %
22.11.2016 19:48 10,7 C 10,6 C 8,9 C 88 % 0 lf 1013,2 hPa 0,0 l/m 0 min 0 min 0 W/m 12,6 km/h (3 Bft) 91,49 %
22.11.2016 19:50 10,7 C 10,6 C 8,9 C 88 % 0 lf 1013,2 hPa 0,0 l/m 0 min 0 min 0 W/m 12,6 km/h (3 Bft) 97,87 %
22.11.2016 19:52 10,7 C 10,6 C 8,9 C 88 % 0 lf 1013,3 hPa 0,0 l/m 0 min 0 min 0 W/m 12,6 km/h (3 Bft) 95,74 %
22.11.2016 19:54 10,7 C 10,6 C 8,9 C 88 % 0 lf 1013,3 hPa 0,0 l/m 0 min 0 min 2 W/m 14,6 km/h (3 Bft) 95,74 %
22.11.2016 19:56 10,7 C 10,6 C 8,9 C 88 % 0 lf 1013,3 hPa 0,0 l/m 0 min 0 min 1 W/m 12,6 km/h (3 Bft) 97,83 %
22.11.2016 19:58 10,7 C 10,6 C 8,9 C 88 % 0 lf 1013,5 hPa 0,0 l/m 0 min 0 min 3 W/m 12,6 km/h (3 Bft) 95,74 %
22.11.2016 20:00 10,7 C 10,6 C 8,9 C 88 % 0 lf 1013,5 hPa 0,0 l/m 0 min 0 min 1 W/m 10,5 km/h (2 Bft) 93,62 %
22.11.2016 20:02 10,7 C 10,6 C 8,9 C 88 % 0 lf 1013,5 hPa 0,0 l/m 0 min 0 min 0 W/m 10,5 km/h (2 Bft) 93,62 %
22.11.2016 20:04 10,7 C 10,6 C 8,9 C 88 % 0 lf 1013,4 hPa 0,0 l/m 0 min 0 min 2 W/m 12,6 km/h (3 Bft) 97,87 %
22.11.2016 20:06 10,7 C 10,6 C 8,9 C 88 % 0 lf 1013,4 hPa 0,0 l/m 0 min 0 min 0 W/m 10,5 km/h (2 Bft) 93,62 %
22.11.2016 20:08 10,7 C 10,6 C 8,9 C 88 % 0 lf 1013,3 hPa 0,0 l/m 0 min 0 min 0 W/m 10,5 km/h (2 Bft) 95,65 %
22.11.2016 20:10 10,7 C 10,6 C 8,9 C 88 % 0 lf 1013,3 hPa 0,0 l/m 0 min 0 min 0 W/m 8,4 km/h (2 Bft) 91,49 %
22.11.2016 20:12 10,7 C 10,6 C 8,9 C 88 % 0 lf 1013,3 hPa 0,0 l/m 0 min 2 min 0 W/m 10,5 km/h (2 Bft) 95,74 %
22.11.2016 20:14 10,7 C 10,6 C 8,9 C 89 % 0 lf 1013,3 hPa 0,0 l/m 0 min 2 min 0 W/m 14,6 km/h (3 Bft) 95,74 %
22.11.2016 20:16 10,7 C 10,6 C 8,9 C 88 % 0 lf 1013,3 hPa 0,0 l/m 0 min 2 min 0 W/m 10,5 km/h (2 Bft) 91,49 %
22.11.2016 20:18 10,7 C 10,6 C 8,9 C 88 % 0 lf 1013,3 hPa 0,0 l/m 0 min 2 min 0 W/m 10,5 km/h (2 Bft) 95,74 %
22.11.2016 20:20 10,7 C 10,6 C 8,9 C 89 % 0 lf 1013,3 hPa 0,0 l/m 0 min 0 min 0 W/m 10,5 km/h (2 Bft) 93,48 %
22.11.2016 20:22 10,7 C 10,6 C 8,9 C 89 % 0 lf 1013,3 hPa 0,0 l/m 0 min 0 min 0 W/m 8,4 km/h (2 Bft) 93,62 %
22.11.2016 20:24 10,7 C 10,6 C 8,9 C 89 % 0 lf 1013,3 hPa 0,0 l/m 0 min 0 min 0 W/m 14,6 km/h (3 Bft) 95,74 %
22.11.2016 20:26 10,7 C 10,6 C 8,9 C 89 % 0 lf 1013,2 hPa 0,0 l/m 0 min 0 min 0 W/m 14,6 km/h (3 Bft) 93,62 %
22.11.2016 20:28 10,7 C 10,6 C 8,9 C 89 % 0 lf 1013,2 hPa 0,0 l/m 0 min 0 min 0 W/m 10,5 km/h (2 Bft) 95,74 %
22.11.2016 20:30 10,7 C 10,6 C 8,9 C 89 % 0 lf 1013,2 hPa 0,0 l/m 0 min 0 min 0 W/m 10,5 km/h (2 Bft) 95,74 %
22.11.2016 20:32 10,6 C 10,6 C 8,9 C 89 % 0 lf 1013,2 hPa 0,0 l/m 0 min 0 min 0 W/m 14,6 km/h (3 Bft) 95,65 %
22.11.2016 20:34 10,6 C 10,6 C 8,9 C 89 % 0 lf 1013,2 hPa 0,0 l/m 0 min 0 min 0 W/m 12,6 km/h (3 Bft) 97,87 %
22.11.2016 20:36 10,6 C 10,6 C 8,9 C 89 % 0 lf 1013,2 hPa 0,0 l/m 0 min 0 min 0 W/m 16,7 km/h (3 Bft) 91,49 %
22.11.2016 20:38 10,6 C 10,6 C 8,9 C 89 % 0 lf 1013,2 hPa 0,0 l/m 0 min 0 min 0 W/m 16,7 km/h (3 Bft) 93,62 %
22.11.2016 20:40 10,6 C 10,6 C 8,9 C 89 % 0 lf 1013,4 hPa 0,0 l/m 0 min 0 min 0 W/m 10,5 km/h (2 Bft) 97,87 %
22.11.2016 20:42 10,6 C 10,6 C 8,9 C 89 % 0 lf 1013,5 hPa 0,0 l/m 0 min 0 min 0 W/m 12,6 km/h (3 Bft) 93,62 %
22.11.2016 20:44 10,6 C 10,6 C 8,9 C 89 % 0 lf 1013,5 hPa 0,0 l/m 0 min 0 min 0 W/m 12,6 km/h (3 Bft) 97,83 %
22.11.2016 20:46 10,6 C 10,6 C 8,9 C 90 % 0 lf 1013,4 hPa 0,0 l/m 0 min 0 min 0 W/m 12,6 km/h (3 Bft) 97,87 %
22.11.2016 20:48 10,6 C 10,6 C 8,9 C 90 % 0 lf 1013,3 hPa 0,0 l/m 0 min 0 min 0 W/m 14,6 km/h (3 Bft) 97,87 %
22.11.2016 20:50 10,6 C 10,6 C 8,9 C 90 % 0 lf 1013,4 hPa 0,0 l/m 0 min 0 min 0 W/m 10,5 km/h (2 Bft) 97,87 %
22.11.2016 20:52 10,6 C 10,6 C 8,9 C 90 % 0 lf 1013,6 hPa 0,0 l/m 0 min 0 min 0 W/m 14,6 km/h (3 Bft) 93,62 %
22.11.2016 20:54 10,6 C 10,6 C 8,9 C 90 % 0 lf 1013,7 hPa 0,0 l/m 0 min 0 min 0 W/m 12,6 km/h (3 Bft) 100,00 %
22.11.2016 20:56 10,6 C 10,6 C 8,9 C 90 % 0 lf 1013,7 hPa 0,0 l/m 0 min 0 min 0 W/m 10,5 km/h (2 Bft) 97,83 %
22.11.2016 20:58 10,5 C 10,6 C 8,9 C 90 % 0 lf 1013,8 hPa 0,0 l/m 0 min 0 min 0 W/m 10,5 km/h (2 Bft) 95,74 %
22.11.2016 21:00 10,5 C 10,6 C 8,9 C 90 % 0 lf 1013,8 hPa 0,0 l/m 0 min 0 min 0 W/m 10,5 km/h (2 Bft) 100,00 %
22.11.2016 21:02 10,5 C 10,6 C 8,9 C 90 % 0 lf 1013,9 hPa 0,0 l/m 0 min 0 min 0 W/m 10,5 km/h (2 Bft) 100,00 %
22.11.2016 21:04 10,5 C 10,6 C 8,9 C 90 % 0 lf 1013,9 hPa 0,0 l/m 0 min 0 min 0 W/m 8,4 km/h (2 Bft) 100,00 %
22.11.2016 21:06 10,5 C 10,6 C 8,9 C 90 % 0 lf 1013,7 hPa 0,0 l/m 0 min 0 min 0 W/m 6,3 km/h (2 Bft) 95,65 %
22.11.2016 21:08 10,5 C 10,6 C 8,9 C 90 % 0 lf 1013,7 hPa 0,0 l/m 0 min 0 min 4 W/m 8,4 km/h (2 Bft) 95,74 %
22.11.2016 21:10 10,5 C 10,6 C 8,9 C 90 % 0 lf 1013,7 hPa 0,0 l/m 0 min 0 min 1 W/m 6,3 km/h (2 Bft) 95,74 %
22.11.2016 21:12 10,5 C 10,6 C 8,9 C 90 % 0 lf 1013,6 hPa 0,0 l/m 0 min 0 min 0 W/m 8,4 km/h (2 Bft) 100,00 %
22.11.2016 21:14 10,5 C 10,6 C 8,9 C 90 % 0 lf 1013,6 hPa 0,0 l/m 0 min 0 min 0 W/m 10,5 km/h (2 Bft) 97,87 %
22.11.2016 21:16 10,5 C 10,6 C 8,9 C 90 % 0 lf 1013,5 hPa 0,0 l/m 0 min 0 min 0 W/m 8,4 km/h (2 Bft) 95,74 %
22.11.2016 21:18 10,5 C 10,6 C 8,9 C 90 % 0 lf 1013,4 hPa 0,0 l/m 0 min 0 min 0 W/m 8,4 km/h (2 Bft) 97,83 %
22.11.2016 21:20 10,5 C 10,6 C 8,9 C 90 % 0 lf 1013,4 hPa 0,0 l/m 0 min 0 min 0 W/m 10,5 km/h (2 Bft) 95,74 %
22.11.2016 21:22 10,4 C 10,6 C 8,9 C 90 % 0 lf 1013,4 hPa 0,0 l/m 0 min 0 min 0 W/m 8,4 km/h (2 Bft) 97,87 %
22.11.2016 21:24 10,4 C 10,6 C 8,9 C 91 % 0 lf 1013,4 hPa 0,0 l/m 0 min 0 min 0 W/m 8,4 km/h (2 Bft) 95,74 %
22.11.2016 21:26 10,4 C 10,6 C 8,9 C 91 % 0 lf 1013,5 hPa 0,0 l/m 0 min 0 min 0 W/m 6,3 km/h (2 Bft) 97,87 %
22.11.2016 21:28 10,4 C 10,6 C 8,9 C 91 % 0 lf 1013,5 hPa 0,0 l/m 0 min 0 min 0 W/m 6,3 km/h (2 Bft) 89,36 %
22.11.2016 21:30 10,4 C 10,6 C 8,9 C 91 % 0 lf 1013,4 hPa 0,0 l/m 0 min 0 min 0 W/m 8,4 km/h (2 Bft) 97,83 %
22.11.2016 21:32 10,4 C 10,6 C 8,9 C 91 % 0 lf 1013,4 hPa 0,0 l/m 0 min 0 min 0 W/m 10,5 km/h (2 Bft) 95,74 %
22.11.2016 21:34 10,4 C 10,6 C 8,9 C 91 % 0 lf 1013,4 hPa 0,0 l/m 0 min 0 min 0 W/m 6,3 km/h (2 Bft) 97,87 %
22.11.2016 21:36 10,4 C 10,6 C 8,9 C 91 % 0 lf 1013,4 hPa 0,0 l/m 0 min 0 min 0 W/m 6,3 km/h (2 Bft) 95,74 %
22.11.2016 21:38 10,4 C 10,6 C 8,9 C 91 % 0 lf 1013,5 hPa 0,0 l/m 0 min 0 min 0 W/m 6,3 km/h (2 Bft) 95,74 %
22.11.2016 21:40 10,4 C 10,6 C 8,9 C 91 % 0 lf 1013,5 hPa 0,0 l/m 0 min 0 min 0 W/m 4,2 km/h (1 Bft) 97,87 %
22.11.2016 21:42 10,4 C 10,6 C 8,9 C 91 % 0 lf 1013,5 hPa 0,0 l/m 0 min 0 min 0 W/m 6,3 km/h (2 Bft) 93,48 %
22.11.2016 21:44 10,4 C 10,6 C 8,9 C 91 % 0 lf 1013,5 hPa 0,0 l/m 0 min 0 min 0 W/m 2,1 km/h (1 Bft) 95,74 %
22.11.2016 21:46 10,4 C 10,6 C 8,9 C 91 % 0 lf 1013,4 hPa 0,0 l/m 0 min 0 min 0 W/m 4,2 km/h (1 Bft) 93,62 %
22.11.2016 21:48 10,4 C 10,6 C 8,9 C 91 % 0 lf 1013,5 hPa 0,0 l/m 0 min 0 min 0 W/m 8,4 km/h (2 Bft) 93,62 %
22.11.2016 21:50 10,4 C 10,6 C 8,9 C 91 % 0 lf 1013,5 hPa 0,0 l/m 0 min 0 min 0 W/m 8,4 km/h (2 Bft) 95,74 %
22.11.2016 21:52 10,4 C 10,6 C 8,9 C 91 % 0 lf 1013,5 hPa 0,0 l/m 0 min 0 min 2 W/m 14,6 km/h (3 Bft) 97,87 %
22.11.2016 21:54 10,4 C 10,6 C 8,9 C 91 % 0 lf 1013,5 hPa 0,0 l/m 0 min 0 min 0 W/m 6,3 km/h (2 Bft) 95,65 %
22.11.2016 21:56 10,4 C 10,6 C 8,9 C 91 % 0 lf 1013,6 hPa 0,0 l/m 0 min 0 min 0 W/m 10,5 km/h (2 Bft) 95,74 %
22.11.2016 21:58 10,4 C 10,6 C 8,9 C 91 % 0 lf 1013,7 hPa 0,0 l/m 0 min 0 min 0 W/m 8,4 km/h (2 Bft) 93,62 %
22.11.2016 22:00 10,4 C 10,6 C 8,9 C 91 % 0 lf 1013,7 hPa 0,0 l/m 0 min 0 min 0 W/m 8,4 km/h (2 Bft) 93,62 %
22.11.2016 22:02 10,4 C 10,6 C 8,9 C 91 % 0 lf 1013,8 hPa 0,0 l/m 0 min 0 min 0 W/m 8,4 km/h (2 Bft) 95,74 %
22.11.2016 22:04 10,4 C 10,6 C 8,9 C 91 % 0 lf 1013,9 hPa 0,0 l/m 0 min 0 min 0 W/m 8,4 km/h (2 Bft) 95,74 %
22.11.2016 22:06 10,4 C 10,6 C 8,9 C 91 % 0 lf 1013,9 hPa 0,0 l/m 0 min 0 min 0 W/m 10,5 km/h (2 Bft) 95,65 %
22.11.2016 22:08 10,4 C 10,6 C 8,9 C 91 % 0 lf 1013,8 hPa 0,0 l/m 0 min 0 min 0 W/m 12,6 km/h (3 Bft) 95,74 %
22.11.2016 22:10 10,4 C 10,6 C 8,9 C 91 % 0 lf 1013,8 hPa 0,0 l/m 0 min 0 min 0 W/m 8,4 km/h (2 Bft) 97,87 %
22.11.2016 22:12 10,3 C 10,0 C 8,9 C 91 % 0 lf 1013,8 hPa 0,0 l/m 0 min 0 min 0 W/m 10,5 km/h (2 Bft) 97,87 %
22.11.2016 22:14 10,3 C 10,0 C 8,9 C 91 % 0 lf 1013,9 hPa 0,0 l/m 0 min 0 min 0 W/m 14,6 km/h (3 Bft) 93,62 %
22.11.2016 22:16 10,3 C 10,0 C 8,9 C 91 % 0 lf 1013,9 hPa 0,0 l/m 0 min 0 min 0 W/m 10,5 km/h (2 Bft) 95,65 %
22.11.2016 22:18 10,3 C 10,0 C 8,9 C 92 % 0 lf 1013,9 hPa 0,0 l/m 0 min 0 min 0 W/m 8,4 km/h (2 Bft) 93,62 %
22.11.2016 22:20 10,3 C 10,0 C 8,9 C 92 % 0 lf 1014,0 hPa 0,0 l/m 0 min 0 min 0 W/m 10,5 km/h (2 Bft) 93,62 %
22.11.2016 22:22 10,3 C 10,6 C 8,9 C 92 % 0 lf 1014,0 hPa 0,0 l/m 0 min 0 min 0 W/m 10,5 km/h (2 Bft) 97,87 %
22.11.2016 22:24 10,3 C 10,6 C 8,9 C 92 % 0 lf 1014,0 hPa 0,0 l/m 0 min 0 min 0 W/m 12,6 km/h (3 Bft) 97,87 %
22.11.2016 22:26 10,3 C 10,0 C 8,9 C 92 % 0 lf 1014,0 hPa 0,0 l/m 0 min 0 min 0 W/m 8,4 km/h (2 Bft) 100,00 %
22.11.2016 22:28 10,3 C 10,0 C 8,9 C 92 % 0 lf 1013,9 hPa 0,0 l/m 0 min 0 min 0 W/m 10,5 km/h (2 Bft) 100,00 %
22.11.2016 22:30 10,3 C 10,0 C 8,3 C 92 % 0 lf 1014,0 hPa 0,0 l/m 0 min 0 min 0 W/m 10,5 km/h (2 Bft) 95,74 %
22.11.2016 22:32 10,3 C 10,0 C 8,9 C 92 % 0 lf 1014,0 hPa 0,0 l/m 0 min 0 min 0 W/m 8,4 km/h (2 Bft) 97,87 %
22.11.2016 22:34 10,3 C 10,0 C 8,9 C 92 % 0 lf 1014,1 hPa 0,0 l/m 0 min 0 min 2 W/m 10,5 km/h (2 Bft) 100,00 %
22.11.2016 22:36 10,3 C 10,0 C 8,9 C 92 % 0 lf 1014,1 hPa 0,0 l/m 0 min 0 min 0 W/m 8,4 km/h (2 Bft) 97,87 %
22.11.2016 22:38 10,3 C 10,0 C 8,9 C 92 % 0 lf 1014,1 hPa 0,0 l/m 0 min 0 min 0 W/m 8,4 km/h (2 Bft) 100,00 %
22.11.2016 22:40 10,3 C 10,0 C 8,9 C 92 % 0 lf 1014,1 hPa 0,0 l/m 0 min 0 min 0 W/m 6,3 km/h (2 Bft) 97,83 %
22.11.2016 22:42 10,2 C 10,0 C 8,9 C 92 % 0 lf 1014,1 hPa 0,0 l/m 0 min 0 min 0 W/m 6,3 km/h (2 Bft) 97,87 %
22.11.2016 22:44 10,2 C 10,0 C 8,9 C 92 % 0 lf 1014,0 hPa 0,0 l/m 0 min 0 min 0 W/m 8,4 km/h (2 Bft) 100,00 %
22.11.2016 22:46 10,2 C 10,0 C 8,9 C 92 % 0 lf 1014,1 hPa 0,0 l/m 0 min 0 min 0 W/m 6,3 km/h (2 Bft) 100,00 %
22.11.2016 22:48 10,2 C 10,0 C 8,3 C 92 % 0 lf 1014,1 hPa 0,0 l/m 0 min 0 min 0 W/m 6,3 km/h (2 Bft) 95,74 %
22.11.2016 22:50 10,2 C 10,0 C 8,3 C 92 % 0 lf 1014,1 hPa 0,0 l/m 0 min 0 min 0 W/m 6,3 km/h (2 Bft) 97,87 %
22.11.2016 22:52 10,2 C 10,0 C 8,3 C 92 % 0 lf 1014,1 hPa 0,0 l/m 0 min 0 min 0 W/m 4,2 km/h (1 Bft) 91,30 %
22.11.2016 22:54 10,2 C 10,0 C 8,3 C 92 % 0 lf 1014,1 hPa 0,0 l/m 0 min 0 min 0 W/m 6,3 km/h (2 Bft) 95,74 %
22.11.2016 22:56 10,2 C 10,0 C 8,3 C 92 % 0 lf 1014,1 hPa 0,0 l/m 0 min 0 min 0 W/m 6,3 km/h (2 Bft) 95,74 %
22.11.2016 22:58 10,2 C 10,0 C 8,3 C 92 % 0 lf 1014,2 hPa 0,0 l/m 0 min 0 min 0 W/m 6,3 km/h (2 Bft) 95,74 %
22.11.2016 23:00 10,2 C 10,0 C 8,3 C 92 % 0 lf 1014,1 hPa 0,0 l/m 0 min 0 min 0 W/m 6,3 km/h (2 Bft) 95,74 %
22.11.2016 23:02 10,2 C 10,0 C 8,3 C 92 % 0 lf 1014,1 hPa 0,0 l/m 0 min 0 min 0 W/m 6,3 km/h (2 Bft) 95,74 %
22.11.2016 23:04 10,2 C 10,0 C 8,3 C 92 % 0 lf 1014,1 hPa 0,0 l/m 0 min 0 min 0 W/m 6,3 km/h (2 Bft) 95,65 %
22.11.2016 23:06 10,2 C 10,0 C 8,3 C 92 % 0 lf 1014,1 hPa 0,0 l/m 0 min 0 min 0 W/m 6,3 km/h (2 Bft) 93,62 %
22.11.2016 23:08 10,1 C 10,0 C 8,3 C 92 % 0 lf 1014,1 hPa 0,0 l/m 0 min 0 min 0 W/m 6,3 km/h (2 Bft) 95,74 %
22.11.2016 23:10 10,1 C 10,0 C 8,3 C 92 % 0 lf 1014,0 hPa 0,0 l/m 0 min 0 min 0 W/m 6,3 km/h (2 Bft) 91,49 %
22.11.2016 23:12 10,1 C 10,0 C 8,3 C 93 % 0 lf 1014,1 hPa 0,0 l/m 0 min 0 min 0 W/m 8,4 km/h (2 Bft) 95,74 %
22.11.2016 23:14 10,1 C 10,0 C 8,3 C 93 % 0 lf 1014,1 hPa 0,0 l/m 0 min 0 min 0 W/m 6,3 km/h (2 Bft) 95,74 %
22.11.2016 23:16 10,1 C 10,0 C 8,3 C 93 % 0 lf 1014,1 hPa 0,0 l/m 0 min 0 min 0 W/m 8,4 km/h (2 Bft) 89,13 %
22.11.2016 23:18 10,1 C 10,0 C 8,3 C 93 % 0 lf 1014,1 hPa 0,0 l/m 0 min 0 min 0 W/m 6,3 km/h (2 Bft) 91,49 %
22.11.2016 23:20 10,1 C 10,0 C 8,3 C 93 % 0 lf 1014,1 hPa 0,0 l/m 0 min 0 min 0 W/m 6,3 km/h (2 Bft) 95,74 %
22.11.2016 23:22 10,1 C 10,0 C 8,3 C 93 % 0 lf 1014,0 hPa 0,0 l/m 0 min 0 min 0 W/m 8,4 km/h (2 Bft) 95,74 %
22.11.2016 23:24 10,1 C 10,0 C 8,3 C 93 % 0 lf 1013,9 hPa 0,0 l/m 0 min 0 min 0 W/m 8,4 km/h (2 Bft) 93,62 %
22.11.2016 23:26 10,1 C 10,0 C 8,3 C 93 % 0 lf 1013,9 hPa 0,0 l/m 0 min 0 min 0 W/m 10,5 km/h (2 Bft) 95,65 %
22.11.2016 23:28 10,1 C 10,0 C 8,3 C 93 % 0 lf 1014,0 hPa 0,0 l/m 0 min 0 min 1 W/m 6,3 km/h (2 Bft) 91,49 %
22.11.2016 23:30 10,1 C 10,0 C 8,3 C 93 % 0 lf 1014,0 hPa 0,0 l/m 0 min 0 min 1 W/m 8,4 km/h (2 Bft) 93,62 %
22.11.2016 23:32 10,1 C 10,0 C 8,3 C 93 % 0 lf 1014,0 hPa 0,0 l/m 0 min 0 min 0 W/m 8,4 km/h (2 Bft) 91,49 %
22.11.2016 23:34 10,1 C 10,0 C 8,3 C 93 % 0 lf 1014,0 hPa 0,0 l/m 0 min 0 min 0 W/m 8,4 km/h (2 Bft) 89,36 %
22.11.2016 23:36 10,1 C 10,0 C 8,3 C 93 % 0 lf 1014,0 hPa 0,0 l/m 0 min 0 min 2 W/m 8,4 km/h (2 Bft) 95,74 %
22.11.2016 23:38 10,1 C 10,0 C 8,3 C 93 % 0 lf 1014,0 hPa 0,0 l/m 0 min 0 min 0 W/m 6,3 km/h (2 Bft) 97,83 %
22.11.2016 23:40 10,0 C 10,0 C 8,3 C 93 % 0 lf 1014,1 hPa 0,0 l/m 0 min 0 min 0 W/m 6,3 km/h (2 Bft) 95,74 %
22.11.2016 23:42 10,0 C 10,0 C 8,3 C 93 % 0 lf 1014,1 hPa 0,0 l/m 0 min 0 min 0 W/m 6,3 km/h (2 Bft) 91,49 %
22.11.2016 23:44 10,1 C 10,0 C 8,3 C 93 % 0 lf 1014,1 hPa 0,0 l/m 0 min 0 min 0 W/m 4,2 km/h (1 Bft) 91,49 %
22.11.2016 23:46 10,1 C 10,0 C 8,3 C 93 % 0 lf 1014,2 hPa 0,0 l/m 0 min 0 min 0 W/m 6,3 km/h (2 Bft) 97,87 %
22.11.2016 23:48 10,0 C 10,0 C 8,3 C 93 % 0 lf 1014,3 hPa 0,0 l/m 0 min 0 min 0 W/m 8,4 km/h (2 Bft) 89,36 %
22.11.2016 23:50 10,1 C 10,0 C 8,3 C 93 % 0 lf 1014,3 hPa 0,0 l/m 0 min 0 min 0 W/m 4,2 km/h (1 Bft) 95,65 %
22.11.2016 23:52 10,1 C 10,0 C 8,3 C 93 % 0 lf 1014,3 hPa 0,0 l/m 0 min 0 min 0 W/m 8,4 km/h (2 Bft) 95,74 %
22.11.2016 23:54 10,1 C 10,0 C 8,3 C 93 % 0 lf 1014,2 hPa 0,0 l/m 0 min 0 min 0 W/m 8,4 km/h (2 Bft) 97,87 %
22.11.2016 23:56 10,1 C 10,0 C 8,3 C 93 % 0 lf 1014,2 hPa 0,0 l/m 0 min 0 min 0 W/m 10,5 km/h (2 Bft) 95,74 %
22.11.2016 23:58 10,1 C 10,0 C 8,3 C 93 % 0 lf 1014,2 hPa 0,0 l/m 0 min 0 min 0 W/m 8,4 km/h (2 Bft) 95,74 %
_ Min-Zeit 23:38 19:16 03:00 14:56 00:00 02:02 - - - - 21:44 06:10
Minimum _ 10,0 C 10,0 C 8,3 C 74 % 0 lf 1000,3 hPa - - - - 2,1 km/h (1 Bft) 85,11 %
_ Max-Zeit 14:26 14:08 14:04 00:00 18:52 23:48 00:00 09:34 00:06 14:06 01:00 01:58
Maximum _ 13,3 C 18,9 C 12,8 C 93 % 1 lf 1014,3 hPa 0,0 l/m 2 min 2 min 274 W/m 35,6 km/h
S (5 Bft)
100,00 %
Durchschnitt _ 11,5 C 11,7 C 9,6 C 83 % 0 lf 1008,1 hPa #0,0 l/m #1:00 h #1:06 h 38 W/m 15,4 km/h (3 Bft) 95,70 %
© 2016 W. Hausmann